Wissant - Hors Challenge

le Trail de la Côte d'Opale à Wissant (21.00 km)

dimanche 10 septembre 2017

Le Classement original se trouve sur : http://www.chronorace.be
 
LE TRAIL DE LA CÔTE D'OPALE - WISSANT
DISTANCE : 21.00 km
dimanche 10 septembre 2017
 
Place Dos NOM Pays Catégorie Pl/cat temps temps/km Vitesse
1 4547 PICHONNIER GUILLAUME FRA SH 1 1:24:18 04:01 14.95
2 4490 MICHEL LUC BEL SH 2 1:25:16 04:04 14.78
3 4177 GOSSART JEROME FRA SH 3 1:25:40 04:05 14.71
4 5236 VANSTRAZEELE MATHIEU FRA SH 4 1:27:50 04:11 14.35
5 4370 VANDAMME NICOLAS FRA SH 5 1:29:43 04:16 14.04
6 4178 GOSSART JULIEN FRA SH 6 1:30:51 04:20 13.87
7 4963 LHEUREUX DANIEL FRA V1 1 1:32:52 04:25 13.57
8 4993 MAQUINGHEN CHRISTOPHE FRA V1 2 1:33:23 04:27 13.49
9 4134 DUPONT GODEFROY FRA SH 7 1:33:32 04:27 13.47
10 4958 PLANCHET EMMANUEL FRA V2 1 1:34:46 04:31 13.30
11 4272 HUCHETTE DAVID FRA SH 8 1:35:29 04:33 13.20
12 4666 COUSIN ANTHONY FRA SH 9 1:37:04 04:37 12.98
13 5120 TROCME JULIEN FRA SH 10 1:37:50 04:40 12.88
14 4255 BOIDIN MATTHIEU FRA V1 3 1:38:48 04:42 12.75
15 4939 DUBOIS TONY FRA V1 4 1:39:03 04:43 12.72
16 5219 BUQUET JÉROME FRA V1 5 1:39:10 04:43 12.71
17 5018 LABOUSSOLE OLIVIER FRA V1 6 1:39:22 04:44 12.68
18 4455 LOAEC ENORA FRA SH 11 1:39:25 04:44 12.67
19 4193 REGHEM DIDIER FRA V2 2 1:39:40 04:45 12.64
20 4417 DESCHAMPS PHILIPPE FRA V2 3 1:40:38 04:48 12.52
21 4216 GUILLEMENT PIERRE-VINCENT FRA SH 12 1:41:03 04:49 12.47
22 4200 DUWATTEZ SÉBASTIEN FRA SH 13 1:41:04 04:49 12.47
23 4664 SAMOUH FLORIAN FRA SH 14 1:41:14 04:49 12.45
24 4667 GOURNAY MATHIEU FRA SH 15 1:41:24 04:50 12.43
25 4374 FOURRIER VINCENT FRA SH 16 1:42:08 04:52 12.34
26 4750 DE SOUSA EMILIE FRA V1 7 1:42:14 04:52 12.32
27 4850 MARCHIENNES FABIEN FRA SH 17 1:42:30 04:53 12.29
28 4828 LORTHIOIR SEBASTIEN FRA SH 18 1:42:30 04:53 12.29
29 4357 RIQUIER OLIVIER FRA V1 8 1:42:31 04:53 12.29
30 4306 HEINE BORIS FRA SH 19 1:42:59 04:54 12.23
31 4471 BRICE DENIMAL FRA SH 20 1:43:32 04:56 12.17
32 5163 DEWET WILFRIED FRA V1 9 1:43:40 04:56 12.15
33 4829 LALY NICOLAS FRA SH 21 1:43:57 04:57 12.12
34 5065 HUCHIN STÉPHANE FRA V2 4 1:44:01 04:57 12.11
35 4398 RAUX THIBAULT FRA SH 22 1:44:14 04:58 12.09
36 4813 CASTRO MANUEL ESP V1 10 1:44:37 04:59 12.04
37 4322 HEBERT PASCAL FRA V1 11 1:44:40 04:59 12.04
38 4382 CLERX ARNAUD BEL SH 23 1:44:52 05:00 12.02
39 5087 OPSOMER BRUNO BEL SH 24 1:44:53 05:00 12.01
40 4451 DUPAS AURÉLIEN FRA SH 25 1:46:02 05:03 11.88
41 4825 DUPUIS DIDIER FRA V2 5 1:46:06 05:03 11.88
42 4369 VANDAMME STÉPHANE FRA V2 6 1:46:26 05:04 11.84
43 5224 TORLOTTING GRÉGORY FRA SH 26 1:46:30 05:04 11.83
44 4871 MENEGATTI ALEXANDRE BEL SH 27 1:46:32 05:04 11.83
45 5164 DUCLOIE JEROME FRA V1 12 1:46:33 05:04 11.83
46 5223 BLED NICOLAS FRA V2 7 1:46:41 05:05 11.81
47 4377 ESTORGUE JEAN LUC FRA V2 8 1:46:45 05:05 11.80
48 4583 GRARE ADRIEN FRA SH 28 1:46:49 05:05 11.80
49 5042 MIEZE NICOLAS FRA SH 29 1:47:03 05:06 11.77
50 4812 MARIQUE JEAN-CHRISTOPHE FRA V1 13 1:47:17 05:07 11.74
51 4142 SERGENT GUILLAUME FRA SH 30 1:47:18 05:07 11.74
52 4920 BAQUET DANY BEL V2 9 1:47:27 05:07 11.73
53 4441 BOULAY PASCAL FRA V1 14 1:47:37 05:07 11.71
54 5206 DENZLER ROMAIN FRA V2 10 1:47:39 05:08 11.70
55 4435 FERMON PATRICK FRA V1 15 1:47:39 05:08 11.70
56 4195 PAUCHET GUILLAUME FRA SH 31 1:47:44 05:08 11.70
57 4770 ALLO CHRISTOPHE FRA V1 16 1:47:44 05:08 11.70
58 4990 LEPRINCE AURELIE FRA A1 1 1:47:45 05:08 11.69
59 4128 GUENIN FRANCK FRA V1 17 1:48:11 05:09 11.65
60 4986 LEPRINCE VINCENT FRA V1 18 1:48:32 05:10 11.61
61 4580 MATHON CEDRIC   SH 32 1:49:07 05:12 11.55
62 4673 DELAPLACE LOÏC FRA V1 19 1:49:38 05:13 11.49
63 5166 CREPIN OLIVIER FRA SH 33 1:49:39 05:13 11.49
64 4680 VERSTRAETE YANN FRA SH 34 1:49:40 05:13 11.49
65 4849 BAUMANS BENOIT BEL V1 20 1:49:46 05:14 11.48
66 4383 BONNIER MATHIEU BEL SH 35 1:50:18 05:15 11.42
67 4783 PRZYBYLSKI GUILLAUME FRA SH 36 1:50:30 05:16 11.40
68 4692 MONFILS VIRGINIE FRA SD 1 1:50:46 05:16 11.38
69 4446 DESCHAMPS JULIETTE FRA V1 21 1:51:04 05:17 11.34
70 5110 CATTEAU MATHIAS BEL SH 37 1:51:09 05:18 11.34
71 4052 HONORÉ PIERRE FRA SH 38 1:51:10 05:18 11.33
72 4904 BUTRUILLE BAPTISTE FRA SH 39 1:51:13 05:18 11.33
73 4376 WARTELLE JEAN DOMINIQUE FRA V1 22 1:51:16 05:18 11.32
74 4375 DUFLOS LAURENT FRA V1 23 1:51:17 05:18 11.32
75 5157 BLANCHARD JEAN-YVES FRA V1 24 1:51:21 05:18 11.32
76 4116 ROLLAND JACOB ANAIS FRA SD 2 1:51:22 05:18 11.31
77 5108 NEMEGHAIRE BENOIT FRA SH 40 1:51:24 05:18 11.31
78 4594 MACHADO JEREMIE FRA V1 25 1:51:25 05:18 11.31
79 4001 GOUTEYRON PERRINE   SD 3 1:51:30 05:19 11.30
80 4125 TOROSSIAN FRANCOIS FRA SH 41 1:51:41 05:19 11.28
81 4684 DELAPLACE BENJAMIN FRA SH 42 1:51:48 05:19 11.27
82 4788 VANHAEBOST GEORGES BEL V2 11 1:51:49 05:19 11.27
83 4786 PATIN SERGE BEL V1 26 1:51:49 05:19 11.27
84 4888 CALCOEN GUILLAUME FRA V1 27 1:51:51 05:20 11.27
85 4172 COEUGNET MANU FRA V1 28 1:52:07 05:20 11.24
86 4008 CHEVREAU DANY   SH 43 1:52:10 05:20 11.23
87 4556 CROQUELOIS DAMIEN FRA SH 44 1:52:26 05:21 11.21
88 4238 HEDGES GAETAN BEL SH 45 1:52:26 05:21 11.21
89 5052 BUTRUILLE BASILE FRA SH 46 1:52:41 05:22 11.18
90 5071 LONGUET REMI FRA V1 29 1:52:48 05:22 11.17
91 4299 CLERX VINCENT BEL V1 30 1:52:51 05:22 11.17
92 4174 PICOT PHILIPPE FRA V1 31 1:53:02 05:23 11.15
93 4496 SPRIET ARNAUD FRA V2 12 1:53:08 05:23 11.14
94 4114 HAPPIETTE FANNY FRA SD 4 1:53:12 05:23 11.13
95 4263 REGNIER FRTEDERIC FRA V1 32 1:53:28 05:24 11.10
96 4603 MAHIEZ DAVID BEL V1 33 1:53:53 05:25 11.06
97 4513 CHEDEMAIL FRANÇOIS FRA SH 47 1:53:53 05:25 11.06
98 5082 DUTRIEUX FERNAND BEL V1 34 1:53:56 05:26 11.06
99 4803 NICOD PHILIPPE FRA V2 13 1:54:00 05:26 11.05
100 4230 HABFAST REMI FRA SH 48 1:54:07 05:26 11.04
101 5025 DECOCK MICHEL BEL V3 1 1:54:12 05:26 11.03
102 4654 VANDERMOLEN THIBAUT FRA SH 49 1:54:13 05:26 11.03
103 4308 LEPOUTRE THIBAUT FRA SH 50 1:54:15 05:26 11.03
104 4935 VANDENBROUCKE GUILLAUME FRA SH 51 1:54:17 05:27 11.03
105 4501 VIGLINO DANIEL BEL V2 14 1:54:21 05:27 11.02
106 4925 ROLLAND EDOUARD FRA SH 52 1:54:28 05:27 11.01
107 5150 ROBILLARD ARNAUD FRA SH 53 1:54:36 05:27 10.99
108 4483 PIGEARD ALEXANDRE FRA SH 54 1:54:55 05:28 10.96
109 4811 KEYDENER JOSEPH FRA SH 55 1:55:09 05:29 10.94
110 4055 MORY ROMAIN FRA SH 56 1:55:17 05:29 10.93
111 4593 FORYCKI LUDOVIC FRA SH 57 1:55:55 05:31 10.87
112 5184 WAMBECQ MICHAEL FRA V1 35 1:55:58 05:31 10.87
113 4815 LEULIET LAURENT FRA SH 58 1:56:06 05:32 10.85
114 4266 LEFETZ YANN FRA SH 59 1:56:09 05:32 10.85
115 4190 DELCOURT THOMAS FRA SH 60 1:56:12 05:32 10.84
116 5098 CARPENTIER JULIEN BEL SH 61 1:56:17 05:32 10.84
117 5113 BAILLET YANNICK FRA SH 62 1:56:19 05:32 10.83
118 4817 BABIN NICOLAS FRA V1 36 1:56:21 05:32 10.83
119 4820 BABIN LORY FRA SH 63 1:56:21 05:32 10.83
120 5023 DELYS FRANK BEL V1 37 1:56:26 05:33 10.82
121 4570 LENOIR ANDY BEL SD 5 1:56:31 05:33 10.81
122 4461 DERONNE MATHIEU BEL V1 38 1:56:34 05:33 10.81
123 4687 CARDOT OLIVIER FRA V1 39 1:56:36 05:33 10.81
124 5058 DUVINAGE LAMBERT BEL SH 64 1:56:49 05:34 10.79
125 4328 SOUILLIEZ GUILLAUME FRA V1 40 1:56:51 05:34 10.78
126 4171 HARSIUCK GREGOIRE FRA SH 65 1:56:53 05:34 10.78
127 4991 DELPLACE JEAN NOËL FRA V2 15 1:56:54 05:34 10.78
128 4492 TIBERGHIEN LUCAS FRA SH 66 1:57:00 05:34 10.77
129 4254 LEFEBVRE GRÉGOIRE FRA SH 67 1:57:10 05:35 10.75
130 5083 KEUTGENS PASCAL BEL V1 41 1:57:15 05:35 10.75
131 5128 GILDEMEESTER YANNICK BEL SH 68 1:57:15 05:35 10.75
132 4932 BENAULT STEPHANE FRA V1 42 1:57:19 05:35 10.74
133 4917 VASSEUR RAPHAEL FRA SH 69 1:57:22 05:35 10.74
134 4368 CONSTANT OLIVIER FRA V2 16 1:57:25 05:35 10.73
135 4479 BAUDE PHILIPPE FRA V1 43 1:57:37 05:36 10.71
136 4256 BENADDI STÉPHANE FRA V1 44 1:57:37 05:36 10.71
137 5057 DELCOURT FRANÇOIS BEL SH 70 1:57:38 05:36 10.71
138 4577 WERNIMONT PIERRE BEL SH 71 1:57:48 05:37 10.70
139 4390 LEROUGE ERIKA FRA SD 6 1:57:49 05:37 10.69
140 5040 BOISTARD FRÉDÉRIC FRA SH 72 1:57:55 05:37 10.69
141 5039 TARET FREDERIC FRA V1 45 1:57:55 05:37 10.69
142 4724 BROQUET JULIEN FRA SH 73 1:57:55 05:37 10.69
143 4844 BOSCOLO MANUEL BEL V1 46 1:58:00 05:37 10.68
144 4756 LEFEBVRE MAXENCE FRA SH 74 1:58:02 05:37 10.67
145 4924 DEUEZ FLORIAN FRA SH 75 1:58:08 05:38 10.67
146 5117 PLATIAU MARIE FRA SD 7 1:58:17 05:38 10.65
147 4450 CURE JULIEN FRA SH 76 1:58:23 05:38 10.64
148 4506 TOSTAIN OLIVIER FRA SH 77 1:58:36 05:39 10.62
149 4942 RODRIGUEZ PASCAL FRA V1 47 1:58:43 05:39 10.61
150 4938 DAQUIN NICOLAS FRA SH 78 1:58:50 05:40 10.60
151 4302 AAMER MINOUN FRA V1 48 1:58:52 05:40 10.60
152 4833 BAUDOUIN JEAN MARC FRA V2 17 1:58:52 05:40 10.60
153 5064 THIEBAUX SERGE FRA V2 18 1:59:03 05:40 10.58
154 4545 COTTIN LUDOVIC FRA V1 49 1:59:18 05:41 10.56
155 4671 PINDRAY DIDIER FRA V2 19 1:59:21 05:41 10.56
156 5143 ANDRE MATTHIEU FRA SH 79 1:59:29 05:41 10.55
157 4831 DELEARDE MELANIE FRA SD 8 1:59:35 05:42 10.54
158 4016 THOMAS PIERRE-OLIVIER FRA V1 50 1:59:46 05:42 10.52
159 4726 SIMON STEVE BEL SH 80 1:59:47 05:42 10.52
160 5176 DELAMAERE SIMON FRA SH 81 1:59:48 05:42 10.52
161 5004 DANEL GUILLAUME FRA V1 51 1:59:58 05:43 10.50
162 4282 LESIEUR BRIDEL OLIVIER FRA V1 52 1:59:59 05:43 10.50
163 5174 DELAMAERE JULIEN FRA SH 82 2:00:11 05:43 10.48
164 4534 MALFOY BENOIT FRA SH 83 2:00:15 05:44 10.48
165 4878 DE LACHAISE CHARLES FRA V1 53 2:00:23 05:44 10.47
166 4722 ROMMELARD REMI FRA SH 84 2:00:26 05:44 10.46
167 4794 CUVILLON JOUVIN VIRGINIE FRA SD 9 2:00:27 05:44 10.46
168 4797 DELANNOY ANTOINE FRA SH 85 2:00:37 05:45 10.45
169 4303 ROGER BASTIEN FRA V1 54 2:00:40 05:45 10.44
170 5081 DERONNE ROMAN FRA SH 86 2:00:43 05:45 10.44
171 5072 DENIS GWENDOLINE FRA SD 10 2:00:43 05:45 10.44
172 5051 BOIS STEPHANE FRA V1 55 2:00:43 05:45 10.44
173 5228 TOULEMONDE BENJAMIN FRA SH 87 2:00:50 05:45 10.43
174 4217 ELLART DAVID FRA SH 88 2:00:53 05:45 10.42
175 5031 BUTRUILLE ELLIOT FRA SH 89 2:00:59 05:46 10.41
176 4011 MARGOLLE CHRISTOPHE   V1 56 2:01:10 05:46 10.40
177 4605 BONVARLET LOU FRA SD 11 2:01:13 05:46 10.39
178 4296 OBIN ALEXANDRE FRA SH 90 2:01:18 05:47 10.39
179 4015 LEMOINE BERTRAND   V1 57 2:01:23 05:47 10.38
180 4131 HOUZE MARINE FRA SD 12 2:01:26 05:47 10.38
181 4130 MOTTE GUILLAUME FRA SH 91 2:01:27 05:47 10.37
182 4791 DEROUET JULIEN FRA SH 92 2:01:30 05:47 10.37
183 4239 LE COZ JEAN NOEL FRA V1 58 2:01:34 05:47 10.36
184 4830 CALLENS NOEMIE FRA SD 13 2:01:35 05:47 10.36
185 4997 LECLERCQ SARAH FRA SD 14 2:01:35 05:47 10.36
186 4868 GUFFROY NATHALIE FRA SD 15 2:01:36 05:47 10.36
187 4790 PASCAL CAMILLE FRA SD 16 2:01:37 05:47 10.36
188 4053 QUEVAL THIBAULT FRA SH 93 2:01:39 05:48 10.36
189 4229 LAMIRAND CEDRIC FRA V1 59 2:01:42 05:48 10.35
190 4775 VELGHE HENRI BEL SH 94 2:01:50 05:48 10.34
191 4916 BLAS CHRISTINA BEL SD 17 2:01:52 05:48 10.34
192 4419 MOLINA FRANCIS FRA V2 20 2:01:52 05:48 10.34
193 4983 OGES NICOLAS FRA V1 60 2:01:55 05:48 10.33
194 4185 HALLARD JEAN FRANÇOIS FRA SH 95 2:01:56 05:48 10.33
195 4265 GRANDCLAUDE MATTHIEU FRA SH 96 2:02:08 05:49 10.32
196 4118 MONTANARI ERIC FRA V2 21 2:02:11 05:49 10.31
197 4438 LEGRAND MATTHIEU FRA V1 61 2:02:12 05:49 10.31
198 4887 DELANNOY LAURENCE FRA A2 1 2:02:20 05:50 10.30
199 4155 CARRA FREDERIQUE FRA A1 2 2:02:21 05:50 10.30
200 4746 SANTANDREU CHRISTINE FRA SD 18 2:02:22 05:50 10.30
201 4160 COURBOT PIERRE FRA SH 97 2:02:29 05:50 10.29
202 5169 ASTIER LAURENT FRA V1 62 2:02:31 05:50 10.28
203 4502 RAULT SÉBASTIEN FRA V1 63 2:02:32 05:50 10.28
204 4785 DUBOIS DOMINIQUE BEL V1 64 2:02:33 05:50 10.28
205 5102 VERMEERSCH OLIVIER BEL SH 98 2:02:41 05:51 10.27
206 4519 THIBEAU ARNAUD FRA V1 65 2:02:43 05:51 10.27
207 5188 DEZEGUE FABIEN FRA SH 99 2:02:45 05:51 10.26
208 4575 MEUNIER MIKAEL FRA SH 100 2:02:46 05:51 10.26
209 5045 LECOINTE EDDY FRA V1 66 2:02:53 05:51 10.25
210 4056 BOUY ROMAIN FRA SH 101 2:02:54 05:51 10.25
211 4578 GOMMARD ROMAIN FRA SH 102 2:02:57 05:51 10.25
212 4486 TULOUP EDOUARD FRA SH 103 2:02:57 05:51 10.25
213 4646 SCHICKS YVES FRA V1 67 2:03:08 05:52 10.23
214 4459 ROLLION HERVE FRA V1 68 2:03:12 05:52 10.23
215 5084 CAPELLE JEROME FRA SH 104 2:03:14 05:52 10.22
216 5141 LIENARD GAETAN FRA V1 69 2:03:14 05:52 10.22
217 5089 GERMAIN GRÉGORY FRA V1 70 2:03:17 05:52 10.22
218 4774 VANDENBROUCKE GRÉGORY FRA V1 71 2:03:22 05:52 10.21
219 4576 HENNON SÉBASTIEN FRA SH 105 2:03:24 05:53 10.21
220 4391 LEROUGE ERIC FRA SH 106 2:03:25 05:53 10.21
221 4629 GAVOIS MARTIAL FRA V3 2 2:03:33 05:53 10.20
222 4507 REYNAERT LOUIS FRA SH 107 2:03:35 05:53 10.20
223 4508 SENLIS VICTOIRE FRA SD 19 2:03:35 05:53 10.20
224 4437 MORNATI MARCO ITA SH 108 2:03:39 05:53 10.19
225 4509 DUMAINE BENJAMIN FRA SH 109 2:03:46 05:54 10.18
226 4877 WESTRADE BRUNO BEL V1 72 2:03:46 05:54 10.18
227 4882 FLAJOLLET JEREMY FRA SH 110 2:03:57 05:54 10.17
228 4933 MERCIER FREDERIC FRA V1 73 2:03:58 05:54 10.16
229 4648 SION LUCAS FRA SH 111 2:04:01 05:54 10.16
230 4799 SOBCZAK HERVÉ FRA V2 22 2:04:02 05:54 10.16
231 4503 DETOURNAY THOMAS FRA V1 74 2:04:08 05:55 10.15
232 5115 OCHIN GUILLAUME FRA V1 75 2:04:09 05:55 10.15
233 4473 HALLEZ KEVIN FRA SH 112 2:04:10 05:55 10.15
234 4278 SORET FRÉDÉRIC FRA V1 76 2:04:13 05:55 10.14
235 4129 DOROT CEDRIC FRA SH 113 2:04:14 05:55 10.14
236 4262 SIS CHRISTIAN FRA V2 23 2:04:23 05:55 10.13
237 4851 DELMARRE HELENE FRA A1 3 2:04:29 05:56 10.12
238 4674 RADON SEBASTIEN FRA V1 77 2:04:29 05:56 10.12
239 4525 SARLET JULIE BEL SD 20 2:04:34 05:56 10.12
240 4735 NATANNI STEEVEN FRA SH 114 2:04:37 05:56 10.11
241 4384 WACOGNE YANNICK FRA SH 115 2:04:37 05:56 10.11
242 4695 SAPY AXELLE FRA A1 4 2:04:39 05:56 10.11
243 4259 ETIENNE OLIVIER FRA SH 116 2:04:47 05:57 10.10
244 4612 LELEU VINCENT FRA SH 117 2:04:48 05:57 10.10
245 4611 VERON AMANDINE FRA SD 21 2:04:48 05:57 10.10
246 4792 CROQUELOIS NICOLAS FRA V1 78 2:04:51 05:57 10.09
247 5116 STORME RÉMY FRA SH 118 2:04:53 05:57 10.09
248 4567 BLANC MICHAEL FRA SH 119 2:04:58 05:57 10.08
249 4527 BIDOUL GIL BEL SH 120 2:04:59 05:57 10.08
250 4236 DOURNEL ANTOINE FRA SH 121 2:05:02 05:57 10.08
251 5013 LAURENT YANNICK FRA SH 122 2:05:17 05:58 10.06
252 4973 STROBBE JONATHAN FRA SH 123 2:05:17 05:58 10.06
253 5210 DAVID EMMANUEL FRA V1 79 2:05:27 05:58 10.04
254 4318 MUCHERY OLIVIER FRA V1 80 2:05:33 05:59 10.04
255 4526 VAN ACHTE CHRISTOPHE BEL V1 81 2:05:34 05:59 10.03
256 5234 RICHARD VINCENT FRA V1 82 2:05:41 05:59 10.03
257 4582 VANDECASTEELE MICKAEL FRA SH 124 2:05:43 05:59 10.02
258 4517 PINTEAUX FRANCOIS FRA SH 125 2:05:46 05:59 10.02
259 4945 ROUSSEAUX MICHEL FRA SH 126 2:05:58 06:00 10.00
260 4934 LYOEN BENJAMIN FRA SH 127 2:05:58 06:00 10.00
261 4994 DELEPLANQUE MAITA FRA SD 22 2:06:02 06:00 10.00
262 4436 FRANSEN KOEN BEL V1 83 2:06:12 06:01 9.98
263 4658 DEGLAVE FABIEN FRA V1 84 2:06:14 06:01 9.98
264 4514 LEROY RUDY FRA SH 128 2:06:23 06:01 9.97
265 4353 SZEWCZYK FREDERIC FRA SH 129 2:06:27 06:01 9.96
266 4392 DAVID DANY FRA V1 85 2:06:39 06:02 9.95
267 5019 LE BARS ANTOINE FRA SH 130 2:06:42 06:02 9.94
268 4764 BERTON MATTHIEU FRA SH 131 2:06:44 06:02 9.94
269 4154 FERRAND VINCENT FRA SH 132 2:06:45 06:02 9.94
270 5080 LESPRIT RAPHAËL FRA V1 86 2:06:53 06:03 9.93
271 4290 DEHAUDT JOHNNY FRA SH 133 2:06:56 06:03 9.93
272 3175 SAUWAERT KATIE BEL A1 5 2:07:00 06:03 9.92
273 4271 CARRA VALERY FRA V1 87 2:07:05 06:03 9.91
274 4505 MOTTE ALICE FRA SD 23 2:07:05 06:03 9.91
275 5137 FOUTERET PHILIPPE FRA V2 24 2:07:07 06:03 9.91
276 4380 DECANTER CASSANDRE FRA SD 24 2:07:09 06:03 9.91
277 4320 DHERS PIERRE FRA SH 134 2:07:09 06:03 9.91
278 4655 RENAUT MAXIME FRA V1 88 2:07:15 06:04 9.90
279 4268 LEBELLE STEPHANE FRA V1 89 2:07:16 06:04 9.90
280 4135 NACRY LUDOVIC FRA V1 90 2:07:19 06:04 9.90
281 5175 DELAMAERE PAUL FRA SH 135 2:07:23 06:04 9.89
282 4897 BRIQUEMONT PATRICIA BEL A1 6 2:07:25 06:04 9.89
283 4872 LANGHENDRIES FRANÇOIS BEL SH 136 2:07:34 06:04 9.88
284 2869 FAUDET ERWAN FRA V1 91 2:07:36 06:05 9.87
285 5235 DIEU FREDERIC FRA V1 92 2:07:36 06:05 9.87
286 4156 COMPIEGNE VINCENT FRA V1 93 2:07:37 06:05 9.87
287 4987 OGNIBENE ANTOINE BEL SH 137 2:07:38 06:05 9.87
288 4836 LEFEBVRE LUDOVIC FRA SH 138 2:07:39 06:05 9.87
289 4951 CHRETIEN JEAN MICHEL FRA V2 25 2:07:45 06:05 9.86
290 4329 WAUTHIER PHILIPPE FRA V2 26 2:07:46 06:05 9.86
291 4859 DECONINCK AURÉLIEN BEL SH 139 2:07:47 06:05 9.86
292 4840 ELLART TYPHANIE FRA SD 25 2:07:50 06:05 9.86
293 4814 CARPENTIER JORDHY FRA SH 140 2:07:52 06:05 9.85
294 4442 RABOUIN FLORENT FRA V1 94 2:07:55 06:05 9.85
295 5129 HAMMANT BEN ZAF V1 95 2:07:56 06:06 9.85
296 4520 ROYER STÉPHANE FRA V1 96 2:08:03 06:06 9.84
297 4518 LEMIERE JOEL FRA V2 27 2:08:10 06:06 9.83
298 5229 AGEZ PHILIPPE FRA SH 141 2:08:17 06:07 9.82
299 4776 DUBOIS RICHARD FRA V1 97 2:08:37 06:07 9.80
300 5020 BILLIET NICOLAS FRA V1 98 2:08:39 06:08 9.79
301 5053 KNAPEN BENOIT FRA V1 99 2:08:40 06:08 9.79
302 4585 URBANSKI LUDOVIC FRA V1 100 2:08:45 06:08 9.79
303 4258 CANNIE FRANK FRA V1 101 2:08:48 06:08 9.78
304 4716 BOUGET ANTHONY FRA SH 142 2:08:50 06:08 9.78
305 4393 HENGER CHRISTOPHE FRA V1 102 2:08:56 06:08 9.77
306 5105 BOITEAUX ELODIE BEL SD 26 2:08:57 06:08 9.77
307 4454 MORAUD JEAN-YVES FRA V3 3 2:08:58 06:08 9.77
308 5214 MORONVAL PASCAL FRA V1 103 2:09:14 06:09 9.75
309 4810 DUPREZ JULIEN FRA SH 143 2:09:16 06:09 9.75
310 4206 DUHEZ CÉDRIC FRA V1 104 2:09:18 06:09 9.74
311 4903 LAMERAND CESAR FRA SH 144 2:09:19 06:09 9.74
312 4571 COSSE VICTOR FRA SH 145 2:09:19 06:09 9.74
313 4702 GUETEMME ROMANE FRA SD 27 2:09:25 06:10 9.74
314 4208 HANOULLE-CLAUDEL CHRISTELLE FRA A1 7 2:09:26 06:10 9.73
315 4644 FAROUX ALAIN FRA V1 105 2:09:31 06:10 9.73
316 5041 LEFEBVRE ARNAUD FRA V1 106 2:09:37 06:10 9.72
317 4632 OLIVIER ANNE SOPHIE FRA A1 8 2:09:44 06:11 9.71
318 4243 MAQUET MAXIME FRA SH 146 2:09:46 06:11 9.71
319 4191 FAYEULLE SOPHIE FRA SD 28 2:09:49 06:11 9.71
320 4588 BRIGE MATTHIEU FRA V1 107 2:09:50 06:11 9.70
321 4223 DEGELS DAVID BEL SH 147 2:10:02 06:12 9.69
322 4591 BOURSIN LOUIS FRA SH 148 2:10:03 06:12 9.69
323 4749 DE SOUSA PAULO FRA V1 108 2:10:04 06:12 9.69
324 4796 PALFART JEROME FRA V1 109 2:10:08 06:12 9.68
325 4745 POTTIEZ NICOLAS BEL SH 149 2:10:12 06:12 9.68
326 4040 PETIT PHILIPPE FRA V2 28 2:10:25 06:13 9.66
327 4635 DOUAY MAXIME FRA SH 150 2:10:48 06:14 9.63
328 4443 DENAGTERGAEL THIERRY BEL V2 29 2:10:55 06:14 9.62
329 4886 DEVAUX NICOLAS FRA SH 151 2:10:56 06:14 9.62
330 5217 REYNAUD VINCENT FRA SH 152 2:11:07 06:15 9.61
331 4269 DYBIONA DENJEAN MURIEL FRA A2 2 2:11:11 06:15 9.60
332 4757 PACCOU ALAIN FRA V1 110 2:11:17 06:15 9.60
333 4493 CATRY GREGOIRE FRA SH 153 2:11:21 06:15 9.59
334 4020 LEVILLAIN JÉRÉMY FRA SH 154 2:11:24 06:15 9.59
335 5062 KNAPEN CHRYSTEL FRA A1 9 2:11:25 06:15 9.59
336 4307 BEUN YVES-MICHAEL FRA V1 111 2:11:26 06:16 9.59
337 4310 DERVAUX CLAUDE BEL V3 4 2:11:29 06:16 9.58
338 4427 CHOLET SEBASTIEN FRA V1 112 2:11:34 06:16 9.58
339 4013 PETROVIC KARMEN   A1 10 2:11:45 06:16 9.56
340 2119 CHAMILLARD ARNAUD FRA SH 155 2:11:46 06:16 9.56
341 4412 BEAUGRAND ALEXANDRE FRA SH 156 2:11:46 06:16 9.56
342 4989 OGNIBENE SERGE BEL V1 113 2:11:48 06:17 9.56
343 4494 CAPIAUX FABIEN FRA V1 114 2:11:48 06:17 9.56
344 4675 DUFOUR LUDOVIC FRA SH 157 2:11:52 06:17 9.56
345 4710 BIREMBAUT DENIS FRA V2 30 2:11:55 06:17 9.55
346 4151 ROQUES BERNARD FRA V1 115 2:11:59 06:17 9.55
347 4167 HUNNAULT PEN SENMOM CHM A1 11 2:12:04 06:17 9.54
348 2941 CARACINI MARCELLO ITA V2 31 2:12:06 06:17 9.54
349 4662 TROUILLE GAETAN FRA V1 116 2:12:13 06:18 9.53
350 4387 MAURY FREDERIC FRA V2 32 2:12:19 06:18 9.52
351 4246 BOULOGNE PATRICK FRA V2 33 2:12:21 06:18 9.52
352 4007 PAQUE ANTHONY   SH 158 2:12:23 06:18 9.52
353 4316 MEURICE JONATHAN FRA SH 159 2:12:27 06:18 9.51
354 4311 BARBELLION ANTOINE FRA SH 160 2:12:27 06:18 9.51
355 4221 BARDY VANESSA FRA SD 29 2:12:31 06:19 9.51
356 4546 LEYSENS STÉPHANE FRA V1 117 2:12:33 06:19 9.51
357 4323 HEBERT ALEXANDRA FRA A1 12 2:12:34 06:19 9.50
358 4468 VANTYGHEM LAURENT FRA SH 161 2:12:37 06:19 9.50
359 4804 DELIERS PATRICE FRA V2 34 2:12:50 06:20 9.49
360 4497 DE ROCCO LOUIS FRA SH 162 2:12:54 06:20 9.48
361 4678 VERSTRAETE GERARD FRA V3 5 2:12:55 06:20 9.48
362 4915 BELLENGIER OLIVIER FRA V1 118 2:13:10 06:20 9.46
363 5122 BAILLET NADEGE FRA SD 30 2:13:30 06:21 9.44
364 5216 COLIN EMMANUEL FRA V1 119 2:13:31 06:21 9.44
365 5114 JOMBART JEROME FRA V1 120 2:13:31 06:21 9.44
366 5046 DEVOS ALEXANDRE FRA SH 163 2:13:37 06:22 9.43
367 4173 GAILLARD PATRICE FRA V1 121 2:13:40 06:22 9.43
368 5167 HAMELET CELINE FRA SD 31 2:13:42 06:22 9.42
369 5076 PETIT CAROLINE FRA A1 13 2:13:44 06:22 9.42
370 4295 BOURGAIN PIERRE FRA V1 122 2:13:48 06:22 9.42
371 4902 DEDRIE VICTOR FRA SH 164 2:13:55 06:23 9.41
372 4285 MICHAUX MARTIN FRA SH 165 2:14:14 06:24 9.39
373 2666 THOMAS LYDIVINE FRA A1 14 2:14:14 06:24 9.39
374 4026 DUBOIS MAXIME FRA SH 166 2:14:17 06:24 9.38
375 5119 STUCKI CONSTANCE FRA SD 32 2:14:18 06:24 9.38
376 4360 BAUDENS LAURENT FRA V1 123 2:14:18 06:24 9.38
377 4581 DE ROCCO FRANCK FRA V3 6 2:14:31 06:24 9.37
378 4475 SUPIOT PHILIPPE FRA V2 35 2:14:34 06:24 9.36
379 2107 DELARRE MARYLINE FRA A2 3 2:14:34 06:24 9.36
380 4146 GALLETTI ANDREA FRA V2 36 2:14:35 06:25 9.36
381 4969 LETUFFE SAMUEL FRA V1 124 2:14:38 06:25 9.36
382 4400 HOLARD JEAN-LUC FRA V2 37 2:14:42 06:25 9.35
383 5036 BRICE BENJAMIN FRA SH 167 2:14:46 06:25 9.35
384 5070 COUVELARD KATY FRA A1 15 2:14:47 06:25 9.35
385 4821 DETANT MANU FRA A1 16 2:14:49 06:25 9.35
386 5109 CABOT GRÉGOIRE FRA V1 125 2:14:50 06:25 9.34
387 4953 FIGOUREUX SANDRINE FRA A1 17 2:14:51 06:25 9.34
388 2242 BONNET JÉRÉMIE FRA SH 168 2:14:53 06:25 9.34
389 2243 BERGOT PHILIPPINE FRA SD 33 2:14:53 06:25 9.34
390 4186 MEURICE NICOLAS FRA V1 126 2:14:58 06:26 9.34
391 4188 BOUSSEAU LAURENT FRA V1 127 2:14:58 06:26 9.34
392 4361 BAUDENS DIANE FRA A1 18 2:15:02 06:26 9.33
393 4573 VINCENT MAXIME FRA SH 169 2:15:04 06:26 9.33
394 4930 VERRAEST THIBAUT FRA SH 170 2:15:10 06:26 9.32
395 4399 ANTUNES PHILIPPE FRA V2 38 2:15:11 06:26 9.32
396 4394 BOMPARD ERIC FRA V1 128 2:15:12 06:26 9.32
397 5017 JANKIEWICZ STANISLAS FRA V2 39 2:15:18 06:27 9.31
398 4854 GRIMBELLE LAURENT FRA V1 129 2:15:19 06:27 9.31
399 4631 HUART OLIVIER BEL V1 130 2:15:23 06:27 9.31
400 4742 SOKOLOWSKI NORBERT POL V1 131 2:15:26 06:27 9.30
401 4856 LORETTE NICOLAS FRA V1 132 2:15:27 06:27 9.30
402 4663 RÉGNIER CHRISTINE FRA A2 4 2:15:33 06:27 9.30
403 4240 MARTIN FRANÇOIS BEL SH 171 2:15:37 06:27 9.29
404 4565 MOYARD MARIE FRA SD 34 2:15:39 06:28 9.29
405 5185 MONNIN ELEONORE FRA SD 35 2:15:39 06:28 9.29
406 5190 FRARIN PIERRE FRA SH 172 2:15:39 06:28 9.29
407 4959 MASSE CAMILLE FRA SD 36 2:15:44 06:28 9.28
408 5208 LEROY OLIVIER FRA V1 133 2:15:45 06:28 9.28
409 4467 BERMOND CAROL FRA V1 134 2:15:48 06:28 9.28
410 4422 BOCQUET CHARLOTTE FRA SD 37 2:15:48 06:28 9.28
411 4385 CARTON STÉPHANE FRA V1 135 2:15:57 06:28 9.27
412 4386 CONVERT LAURENT FRA V1 136 2:15:57 06:28 9.27
413 4161 COISNE MELANIE BEL SD 38 2:15:59 06:29 9.27
414 4977 DANHIER CHRISTOPHE BEL V2 40 2:16:07 06:29 9.26
415 4324 DUBOIS STEPHANIE FRA SD 39 2:16:09 06:29 9.25
416 4150 CHEVRIER CÉDRIC FRA SH 173 2:16:09 06:29 9.25
417 4999 BELY GILBERT FRA V3 7 2:16:11 06:29 9.25
418 4743 SOKOLOWSKA ANETA POL A1 19 2:16:17 06:29 9.25
419 5194 VANNIEUWENHUYSE PASCAL FRA V1 137 2:16:17 06:29 9.25
420 5197 DECHERF MATTHIEU FRA SH 174 2:16:18 06:29 9.24
421 5002 GARDAVOIR SÉBASTIEN BEL SH 175 2:16:18 06:29 9.24
422 4911 DANGELO DAVID FRA V1 138 2:16:22 06:30 9.24
423 4912 GUILMIN DAVID FRA V1 139 2:16:22 06:30 9.24
424 4458 KLEPKA VINCENT FRA V1 140 2:16:23 06:30 9.24
425 4257 SKRZYPCZYK OLIVIER FRA V1 141 2:16:23 06:30 9.24
426 4276 DAVESNE THIERRY FRA V1 142 2:16:33 06:30 9.23
427 4363 MEHAY ANGELIQUE FRA SD 40 2:16:34 06:30 9.23
428 4557 PAYELLE CÉDRIC FRA SH 176 2:16:35 06:30 9.23
429 4839 HERLIN CLÉMENT FRA SH 177 2:16:38 06:30 9.22
430 4975 MUGUET ROMAIN FRA SH 178 2:16:43 06:31 9.22
431 5030 VEREMME OLIVIER FRA SH 179 2:16:46 06:31 9.21
432 5132 DEKIOUK ABDELKRIM FRA V1 143 2:16:52 06:31 9.21
433 5134 LEMIEUVRE MICKAEL FRA SH 180 2:16:52 06:31 9.21
434 4636 DEWINTRE LIONEL FRA V2 41 2:16:53 06:31 9.20
435 4472 AURÉLIE DENIMAL DUBRAY FRA SD 41 2:16:56 06:31 9.20
436 4041 BRABANT BENOIT FRA V1 144 2:17:00 06:31 9.20
437 4956 GUIOT DANIEL BEL V2 42 2:17:10 06:32 9.19
438 4469 VANTYGHEM ELISE FRA SD 42 2:17:17 06:32 9.18
439 4466 VANTYGHEM SOPHIE FRA SD 43 2:17:18 06:32 9.18
440 4950 DEVASSINE PATRICK FRA V2 43 2:17:24 06:33 9.17
441 4532 MALFOY SOPHIE FRA A1 20 2:17:32 06:33 9.16
442 4531 LEFEVRE PHILIPPE FRA V2 44 2:17:32 06:33 9.16
443 4158 GOUTHIER GUY BEL V2 45 2:17:38 06:33 9.15
444 2837 AUTRICQUE NICOLAS FRA SH 181 2:17:41 06:33 9.15
445 4249 VEROUGSTRAETE DAMIEN BEL V2 46 2:17:45 06:34 9.15
446 4279 LHEUREUX CHLOE FRA SD 44 2:17:57 06:34 9.13
447 4751 LOOSEN FRÉDÉRICQ FRA V1 145 2:17:58 06:34 9.13
448 5118 KARIGER FRANÇOIS BEL A1 21 2:18:08 06:35 9.12
449 4604 VANDOORNE BERNARD FRA V2 47 2:18:11 06:35 9.12
450 5168 BOYAVAL PASCAL FRA V1 146 2:18:17 06:35 9.11
451 5155 BOYAVAL DOMINIQUE FRA A1 22 2:18:17 06:35 9.11
452 4918 DESABLENS GAUTHIER BEL SH 182 2:18:27 06:36 9.10
453 4707 DUCROQUET BRYAN FRA SH 183 2:18:28 06:36 9.10
454 4281 PAPZYCKI NICOLAS FRA V1 147 2:18:32 06:36 9.10
455 5135 SALAMON MATHIEU FRA SH 184 2:18:45 06:36 9.08
456 5222 JOYEZ FREDERIC FRA SH 185 2:18:46 06:36 9.08
457 5221 JOYEZ OLIVIER FRA SH 186 2:18:46 06:36 9.08
458 4362 ROGER DIDIER FRA SH 187 2:18:47 06:37 9.08
459 4634 RODRIGUEZ PATRICIA BEL A2 5 2:18:47 06:37 9.08
460 4476 RAZEMON STÉPHANE FRA V2 48 2:18:47 06:37 9.08
461 4590 HEMBERT ANTOINE FRA SH 188 2:18:48 06:37 9.08
462 4623 MONTEGNIES MARYLÈNE BEL SD 45 2:18:49 06:37 9.08
463 4754 LE MANCQ DAVID FRA SH 189 2:18:50 06:37 9.08
464 4115 BERNARD LUCILE FRA SD 46 2:18:52 06:37 9.07
465 4113 BERNARD BERTRAND FRA V1 148 2:18:52 06:37 9.07
466 4219 NOCAUDIE FABIEN FRA SH 190 2:18:58 06:37 9.07
467 5213 ADRIANSEN LUCILE FRA SD 47 2:19:14 06:38 9.05
468 4901 THERON SEBASTIEN FRA V1 149 2:19:18 06:38 9.05
469 4683 ROLLAND SYLVAIN FRA SH 191 2:19:20 06:38 9.04
470 4164 REGHEM ODILE FRA A1 23 2:19:29 06:39 9.03
471 4270 FATOUT GUENOLA FRA SD 48 2:19:30 06:39 9.03
472 4665 CASIER FRANCOIS FRA V1 150 2:19:32 06:39 9.03
473 4739 VANDEWYNCKEL OLIVIER FRA V1 151 2:19:32 06:39 9.03
474 4748 RAMON PASCAL FRA V1 152 2:19:40 06:39 9.02
475 4649 DANEL LAURENT FRA V2 49 2:19:48 06:39 9.01
476 4449 CLAUS FRÉDÉRIC BEL V1 153 2:19:51 06:40 9.01
477 4548 FOURDIN RÉGIS FRA V2 50 2:19:59 06:40 9.00
478 4152 DERAM TONY FRA V1 154 2:20:00 06:40 9.00
479 4536 MANZANO MANUEL FRA SH 192 2:20:03 06:40 9.00
480 3208 LELIEVRE PATRICK FRA V1 155 2:20:07 06:40 8.99
481 3411 LEMOINE SARAH BEL SD 49 2:20:11 06:41 8.99
482 4421 ROUFFLE AMÉLIE FRA SD 50 2:20:24 06:41 8.97
483 4952 JUSTIN JULIE FRA SD 51 2:20:24 06:41 8.97
484 4470 ASLAHE ISABELLE FRA A2 6 2:20:27 06:41 8.97
485 4126 REVAUX SOPHIE FRA A1 24 2:20:29 06:41 8.97
486 4260 MALICE MARIE-PAULE FRA A2 7 2:20:30 06:41 8.97
487 4009 VIVES SERVERA SYLVIE   A2 8 2:20:35 06:42 8.96
488 4181 NOSIEWICZ CYNTHIA FRA SD 52 2:20:38 06:42 8.96
489 4245 POITRE BERNARD FRA V3 8 2:20:39 06:42 8.96
490 4787 FICHÈRE SYLVAIN BEL V1 156 2:20:44 06:42 8.95
491 5131 LEMIEUVRE JULIEN FRA SH 193 2:20:46 06:42 8.95
492 4226 DUMAS ANNABELLE FRA SD 53 2:20:53 06:43 8.94
493 4555 GIRARDEAU SYLVIA FRA A1 25 2:20:56 06:43 8.94
494 5056 VANDENBULCKE MARIE BEL SD 54 2:21:04 06:43 8.93
495 4809 BLOUIN ANNE-SOPHIE FRA A1 26 2:21:04 06:43 8.93
496 4615 POCHET DIMITRI BEL SH 194 2:21:09 06:43 8.93
497 4305 DELPIERRE JULIE FRA SD 55 2:21:09 06:43 8.93
498 5009 LIEBART CHRISTOPHE FRA SH 195 2:21:18 06:44 8.92
499 5008 MEURIN GABRIEL FRA V1 157 2:21:19 06:44 8.92
500 4344 BALLOIS JEAN-LOUIS FRA SH 196 2:21:19 06:44 8.92
501 5144 WEINLING NATHALIE FRA A1 27 2:21:19 06:44 8.92
502 4614 LEMAIRE AUDREY FRA A1 28 2:21:19 06:44 8.92
503 4046 DHUIME ANTOINE FRA SH 197 2:21:24 06:44 8.91
504 4660 MACHY LAURIE FRA SD 56 2:21:25 06:44 8.91
505 4579 THILL DIDIER BEL V1 158 2:21:28 06:44 8.91
506 5183 VARLET JEAN PIERRE FRA V2 51 2:21:31 06:44 8.90
507 5199 LABIJAK ALEXIS FRA SH 198 2:21:34 06:44 8.90
508 4180 CHARBONNEAUD DAVID FRA V1 159 2:21:40 06:45 8.89
509 4232 SOUFFLET EMMANUEL FRA V1 160 2:21:40 06:45 8.89
510 4960 REGNIEZ ALEXANDRE FRA SH 199 2:21:44 06:45 8.89
511 4948 VERRIEST KEVIN FRA SH 200 2:21:44 06:45 8.89
512 4807 MOTTE BENEDICTE FRA A2 9 2:21:46 06:45 8.89
513 4806 ROQUETTE CHRISTELLE FRA A2 10 2:21:46 06:45 8.89
514 4682 SAPY PATRICK FRA V1 161 2:21:57 06:46 8.88
515 4201 NOCAUDIE JENNY FRA SD 57 2:22:06 06:46 8.87
516 4252 AVEZ DAMIEN FRA V1 162 2:22:07 06:46 8.87
517 5180 POUCET JEAN-PHILIPPE BEL SH 201 2:22:09 06:46 8.86
518 4510 TREMBLET MATHIEU FRA V1 163 2:22:10 06:46 8.86
519 4595 MATON SÉBASTIEN FRA V1 164 2:22:10 06:46 8.86
520 4980 CAZIER ANNE FRA A2 11 2:22:10 06:46 8.86
521 4289 NOEZ HUBERT FRA V2 52 2:22:15 06:46 8.86
522 4855 BALLY NICOLAS FRA V1 165 2:22:16 06:46 8.86
523 5195 SALAZAR JOSE CARLOS FRA V1 166 2:22:20 06:47 8.85
524 4762 VANDOMME DENIS FRA V1 167 2:22:25 06:47 8.85
525 5133 LEFORT JOHAN FRA SH 202 2:22:27 06:47 8.85
526 5029 GOUILLARD JULIEN FRA SH 203 2:22:28 06:47 8.84
527 4738 CHARKAOUI BADRIA FRA SD 58 2:22:49 06:48 8.82
528 4737 WADOUX MARINE FRA SD 59 2:22:49 06:48 8.82
529 4516 TALON PIERRE FRA SH 204 2:22:51 06:48 8.82
530 4943 TALON JEAN FRA V2 53 2:22:51 06:48 8.82
531 5043 ANICOT KARINE FRA A1 29 2:22:54 06:48 8.82
532 4523 ROUSSILLE SEBASTIEN FRA SH 205 2:22:54 06:48 8.82
533 4491 MATTENS SAARTJE BEL SD 60 2:22:55 06:48 8.82
534 4819 CARONI AMBROISE FRA SH 206 2:22:58 06:48 8.81
535 4331 VERFAILLIE PASCAL FRA SH 207 2:22:58 06:48 8.81
536 4706 LAURAS THOMAS FRA SH 208 2:22:59 06:49 8.81
537 4766 BROGNIART SÉBASTIEN FRA V1 168 2:23:07 06:49 8.80
538 4926 BOUREZ DIMITRI FRA SH 209 2:23:07 06:49 8.80
539 5233 BARTIER LAETITIA FRA A1 30 2:23:08 06:49 8.80
540 4835 PLE JEROME FRA V1 169 2:23:28 06:50 8.78
541 4224 DUHEZ EUGÉNIE FRA A1 31 2:23:29 06:50 8.78
542 4413 DUVAL NADIA FRA A1 32 2:23:31 06:50 8.78
543 4414 DUVAL LAURENT FRA V1 170 2:23:32 06:50 8.78
544 5149 BOLLENGIER NELLY FRA A1 33 2:23:34 06:50 8.78
545 4653 COISNE SOPHIE FRA SD 61 2:23:38 06:50 8.77
546 4651 COISNE TANGUY FRA V1 171 2:23:38 06:50 8.77
547 4978 FERFAILLE YANN FRA SH 210 2:23:44 06:51 8.77
548 5074 CHRISTIAENS CINDY FRA SD 62 2:23:48 06:51 8.76
549 4381 DUHAMEL FLORENCE FRA SD 63 2:23:49 06:51 8.76
550 3338 BODART CHRISTIAN FRA V2 54 2:23:49 06:51 8.76
551 3340 BOUZON CAROLINE FRA A1 34 2:23:49 06:51 8.76
552 4923 DELEFORGE BENOIT FRA V1 172 2:23:51 06:51 8.76
553 4535 LECLERC RODRIGUE FRA V1 173 2:23:54 06:51 8.76
554 4795 BAHEUX ERIC FRA V2 55 2:24:04 06:52 8.75
555 5007 CAZIER PHILIPPE FRA V2 56 2:24:14 06:52 8.74
556 4309 DETANDT INGE BEL SD 64 2:24:28 06:53 8.72
557 4388 VASSEUR CHARLES FRA SH 211 2:24:32 06:53 8.72
558 4456 GREER EMILIE BEL SD 65 2:24:41 06:53 8.71
559 4457 GREER GAELLE BEL A1 35 2:24:41 06:53 8.71
560 4019 DE BRIER GAËTAN FRA SH 212 2:24:41 06:53 8.71
561 4233 DESPLANCHES LAURENT FRA V1 174 2:24:46 06:54 8.70
562 4995 LEUREGANS VINCENT FRA SH 213 2:24:50 06:54 8.70
563 4622 MASURE JEAN-FRANÇOIS BEL V1 175 2:24:51 06:54 8.70
564 4410 PILLIEZ THOMAS FRA V1 176 2:24:55 06:54 8.69
565 4287 DIELEN MARTIN FRA SH 214 2:24:55 06:54 8.69
566 4734 NATANNI CHRISTOPHE FRA V2 57 2:25:00 06:54 8.69
567 4805 BENARD JEAN MARC FRA V2 58 2:25:01 06:54 8.69
568 4452 BONVARLET PAUL FRA SH 215 2:25:02 06:54 8.69
569 4365 LACHEVRE CHRISTINE FRA A2 12 2:25:05 06:55 8.68
570 5200 VERDIN THIERRY FRA V2 59 2:25:05 06:55 8.68
571 4418 RENARD QUENTIN BEL SH 216 2:25:07 06:55 8.68
572 4719 CALLEWAERT DAVID FRA V1 177 2:25:07 06:55 8.68
573 4197 WILLIER RENAUD FRA SH 217 2:25:08 06:55 8.68
574 4006 DEBUYSER JÉRÔME   SH 218 2:25:10 06:55 8.68
575 4189 DELCOURT LUCIE FRA SD 66 2:25:13 06:55 8.68
576 4364 PETIT ISABELLE FRA SD 67 2:25:16 06:55 8.67
577 4416 REUBRECHT CHRISTOPHE FRA SH 219 2:25:22 06:55 8.67
578 4883 BEZOTTE STEPHANE FRA V1 178 2:25:24 06:55 8.67
579 4780 VOLPE MONICA BEL A2 13 2:25:26 06:56 8.66
580 4643 BAYARD ENRICKA FRA A1 36 2:25:34 06:56 8.66
581 4511 HOLUIGUE FRANCIS FRA V1 179 2:25:36 06:56 8.65
582 4314 MOSER OLIVIER FRA V1 180 2:25:39 06:56 8.65
583 4647 DANEL DELPHINE FRA A1 37 2:25:42 06:56 8.65
584 4944 DUSAUTOIR OLIVIER FRA V2 60 2:25:42 06:56 8.65
585 4292 RETKOWSKI SÉBASTIEN FRA V1 181 2:25:43 06:56 8.65
586 5047 BAROU CHARLOTTE BEL SD 68 2:25:43 06:56 8.65
587 5104 VANHOUTTE CÉCILE FRA SD 69 2:25:45 06:56 8.64
588 2608 BROUILLARD FRANÇOIS BEL V1 182 2:25:45 06:56 8.64
589 5202 DENZLER PATRIIA FRA A2 14 2:25:46 06:56 8.64
590 4521 LEFEBVRE CHRISTINE FRA SD 70 2:25:50 06:57 8.64
591 4301 CAROLUS MICHAËL FRA V2 61 2:25:51 06:57 8.64
592 4936 KARIGER PIERRE BEL V1 183 2:25:51 06:57 8.64
593 4183 EHILE MARIE FRA A1 38 2:25:53 06:57 8.64
594 5158 GAUTIER GERALD FRA SH 220 2:25:53 06:57 8.64
595 4677 LE CONIAC ANNE-FRANCE FRA A2 15 2:25:54 06:57 8.64
596 4758 AMEZ SAMUEL FRA SH 221 2:26:07 06:57 8.62
597 4907 VELGHE MARC BEL V2 62 2:26:08 06:58 8.62
598 4482 LEGROS CORINE FRA A1 39 2:26:09 06:58 8.62
599 4894 VANPARIS TIPHANIE FRA SD 71 2:26:09 06:58 8.62
600 4024 ROY ADRIEN FRA SH 222 2:26:15 06:58 8.62
601 4569 MOTTE CÉLINE FRA A1 40 2:26:19 06:58 8.61
602 4747 VERQUIN YVES-MARIE FRA V1 184 2:26:20 06:58 8.61
603 5207 LE CONIAC HIPPOLYTE FRA SH 223 2:26:22 06:58 8.61
604 4395 LEROY MARIE FRA SD 72 2:26:28 06:58 8.60
605 5162 GOUDAL NATHALIE FRA A2 16 2:26:29 06:59 8.60
606 4642 CLOSE JEAN CHRISTOPHE BEL V1 185 2:26:30 06:59 8.60
607 4198 MUNDT OPHELIE FRA SD 73 2:26:32 06:59 8.60
608 4234 FLORANGE CHRISTOPHER FRA SH 224 2:26:33 06:59 8.60
609 4315 RYSSEN JAN-FRANCOIS FRA V2 63 2:26:36 06:59 8.59
610 4504 LANNOYE QUENTIN FRA SH 225 2:26:36 06:59 8.59
611 4755 VALLERAND CAROLE FRA A2 17 2:26:44 06:59 8.59
612 4499 SIBILLE PATRICIA BEL A2 18 2:26:52 07:00 8.58
613 4027 DUBOIS PAULINE FRA SD 74 2:27:04 07:00 8.57
614 4293 BURIEZ SÉBASTIEN FRA V1 186 2:27:06 07:00 8.57
615 4415 SAILLY CHRISTOPHE FRA SH 226 2:27:19 07:01 8.55
616 4039 COUSIN SEVERINE FRA A1 41 2:27:26 07:01 8.55
617 4731 DELATTRE EMMANUEL FRA V1 187 2:27:35 07:02 8.54
618 4732 DELATTRE PATRICIA FRA A1 42 2:27:35 07:02 8.54
619 5189 LEBLANC LYDIE FRA A2 19 2:27:37 07:02 8.54
620 4515 BUTRUILLE INGRID FRA A2 20 2:27:44 07:02 8.53
621 4947 FONTAINE CAMILLE FRA SD 75 2:27:44 07:02 8.53
622 4028 DUTHOIT ANTOINE FRA SH 227 2:27:46 07:02 8.53
623 4488 COCQUET MICKAEL FRA V1 188 2:27:48 07:02 8.53
624 4562 COCQUET ANABELLE FRA SD 76 2:27:50 07:02 8.52
625 4857 DECONINCK MAXIME BEL SH 228 2:27:54 07:03 8.52
626 4773 ANSEL YANNICK FRA SH 229 2:27:55 07:03 8.52
627 4283 CAYPHAS DOMINIQUE FRA V1 189 2:27:56 07:03 8.52
628 4157 ROSA STEPHANE FRA V2 64 2:28:04 07:03 8.51
629 2549 DELNATTE YVES FRA V1 190 2:28:08 07:03 8.51
630 4922 VERMAUWT ERIC FRA V3 9 2:28:10 07:03 8.50
631 5055 RAMBEAU SEBASTIEN FRA SH 230 2:28:10 07:03 8.50
632 4650 CORDIER DAVID FRA V1 191 2:28:27 07:04 8.49
633 4445 DUPONT JÉRÔME FRA V1 192 2:28:39 07:05 8.48
634 4478 LEMAITRE CLÉLIA FRA SD 77 2:28:41 07:05 8.47
635 4688 LIGNIER CANDIDE BEL SD 78 2:28:42 07:05 8.47
636 2192 DESPREZ ANGELIQUE BEL A1 43 2:28:42 07:05 8.47
637 4051 LEROUX OCÉANE FRA SD 79 2:28:44 07:05 8.47
638 4524 AZZOUZ ISAAC FRA SH 231 2:28:44 07:05 8.47
639 4047 GROUX AUDREY FRA SD 80 2:28:44 07:05 8.47
640 5173 LOPEZ RAPHAËLLE BEL SD 81 2:28:54 07:05 8.46
641 4627 DELBOS FRANCOIS FRA V3 10 2:29:00 07:06 8.46
642 4860 LATOUR VALÉRY BEL V1 193 2:29:00 07:06 8.46
643 4474 KUBLER ELODIE FRA SD 82 2:29:04 07:06 8.45
644 5001 DEPRAITER DELPHINE FRA SD 83 2:29:06 07:06 8.45
645 5027 HIEN FRÉDÉRIC FRA SH 232 2:29:07 07:06 8.45
646 4777 DE BAROLET JULIETTE FRA A1 44 2:29:08 07:06 8.45
647 4538 HOULIEZ DAVID FRA V1 194 2:29:22 07:07 8.44
648 4210 BERQUET SANDRINE FRA A1 45 2:29:23 07:07 8.43
649 5067 VANHEMS FRANCOIS FRA V1 195 2:29:26 07:07 8.43
650 4921 VANHEMS VALÉRIE FRA A1 46 2:29:26 07:07 8.43
651 4017 CAMPOS BENJAMIN FRA SH 233 2:29:28 07:07 8.43
652 4718 GAVOIS PATRICK FRA V2 65 2:29:30 07:07 8.43
653 4898 MASQUELEIN GERALDINE FRA SD 84 2:29:37 07:07 8.42
654 4620 CHAMPENOIS JÉRÔME FRA V1 196 2:29:42 07:08 8.42
655 4618 LECLERCQ ANNE BEL A1 47 2:29:50 07:08 8.41
656 4616 OTTEVAERE CHRISTOPHE BEL V2 66 2:29:50 07:08 8.41
657 4597 CORNU PIERRE-JEAN BEL V2 67 2:29:51 07:08 8.41
658 4500 LIBERT DOMINIQUE FRA V1 197 2:29:52 07:08 8.41
659 4143 DELAPLACE MICHEL FRA V3 11 2:29:54 07:08 8.41
660 4145 DELAPLACE JESSICA FRA SD 85 2:29:54 07:08 8.41
661 5090 VANHILLE CAROLINE FRA SD 86 2:29:54 07:08 8.41
662 4000 HEUX JACQUELINE   A1 48 2:30:16 07:09 8.39
663 4396 DELY MAXIME FRA SH 234 2:30:34 07:10 8.37
664 4954 HEUNINCK JOYCE BEL SD 87 2:30:48 07:11 8.36
665 4957 VARIN FREDERIQUE FRA A2 21 2:30:53 07:11 8.35
666 4940 GUAGUERE FRANCE FRA A1 49 2:30:53 07:11 8.35
667 4725 POULAIN FREDERIC FRA V2 68 2:31:00 07:11 8.34
668 4170 BOISSERIE PÉNÉLOPE FRA A1 50 2:31:06 07:12 8.34
669 4712 DEACONU DANIELA FRA SD 88 2:31:11 07:12 8.33
670 4122 LACROIX MARTINE FRA A2 22 2:31:14 07:12 8.33
671 4624 CHAMPENOIS KATHY FRA A1 51 2:31:17 07:12 8.33
672 4192 HOTAUX FANNY BEL A1 52 2:31:19 07:12 8.33
673 4721 VAN GEYTE LUDWIG BEL V2 69 2:31:21 07:12 8.33
674 4793 CROQUELOIS CELINE FRA A1 53 2:31:26 07:13 8.32
675 4895 BRAL SEVERINE BEL A1 54 2:31:30 07:13 8.32
676 4402 DUBLET SERGE BEL V3 12 2:31:33 07:13 8.31
677 4602 DECATOIRE AURELIE FRA SD 89 2:31:45 07:14 8.30
678 4587 VIEREN MICHAEL FRA V1 198 2:31:46 07:14 8.30
679 4215 DOBELLE OLIVIER FRA V2 70 2:31:47 07:14 8.30
680 4564 MOONENS JEAN NOELK FRA SH 235 2:31:50 07:14 8.30
681 4572 HIEL SÉBASTIEN FRA SH 236 2:32:00 07:14 8.29
682 4740 VANDEWYNCKEL SEBASTIEN FRA V1 199 2:32:04 07:14 8.29
683 5172 LANNOYE BRUNO FRA V2 71 2:32:05 07:15 8.28
684 5048 GUILLEMANT MARIE FRA SD 90 2:32:07 07:15 8.28
685 5146 FAUCON PATRICK FRA V2 72 2:32:13 07:15 8.28
686 4900 ABELÉ ALEXANDRA FRA SD 91 2:32:17 07:15 8.27
687 4184 HANSSE JUSTINE FRA SD 92 2:32:19 07:15 8.27
688 4495 GLUSZAK QUENTIN FRA SH 237 2:32:20 07:15 8.27
689 4261 MARQUILLIER THOMAS FRA SH 238 2:32:20 07:15 8.27
690 4018 THOMAS DELPHINE FRA A1 55 2:32:28 07:16 8.26
691 5136 FOUTERET VALÉRIE FRA A1 56 2:32:29 07:16 8.26
692 4984 WIAME ANNE BEL A1 57 2:32:31 07:16 8.26
693 4708 FACQ ESTELLE FRA SD 93 2:32:34 07:16 8.26
694 5209 EGGERMONT TIPHAINE FRA A1 58 2:32:39 07:16 8.25
695 4460 BOUGARD SYLVIE FRA A1 59 2:32:39 07:16 8.25
696 4352 DUCATILLON AURORE FRA SD 94 2:32:39 07:16 8.25
697 4123 LACROIX ERIC FRA V2 73 2:32:52 07:17 8.24
698 4968 HANSSEN ANNETTE BEL A1 60 2:33:13 07:18 8.22
699 4326 CHEVRIER AUDE FRA SD 95 2:33:20 07:18 8.22
700 4613 DUCROCQ MELANIE FRA A1 61 2:33:25 07:18 8.21
701 4159 POIRIER MARIE FRA SD 96 2:33:29 07:19 8.21
702 4767 LE GUERN ARNAULT FRA V1 200 2:33:36 07:19 8.20
703 5063 CABY VICKY BEL SD 97 2:33:43 07:19 8.20
704 4121 BAR SEBASTIEN FRA SH 239 2:33:44 07:19 8.20
705 4120 AZAMBRE AUDREY FRA SD 98 2:33:45 07:19 8.20
706 4841 MARTINAGE KAREN BEL SD 99 2:33:50 07:20 8.19
707 5126 VANDEVYVRE VERONIQUE BEL A2 23 2:33:52 07:20 8.19
708 4127 BAJUS HUGUES FRA V2 74 2:33:53 07:20 8.19
709 4117 BAJUS ANNIE FRA A1 62 2:33:53 07:20 8.19
710 4463 STEIN BENOIT FRA SH 240 2:33:57 07:20 8.18
711 5139 MARTEL VANESSA FRA A1 63 2:33:59 07:20 8.18
712 4962 BOURGAIN SANDRINE FRA A1 64 2:33:59 07:20 8.18
713 5152 BRIZZI JULIE FRA SD 100 2:34:00 07:20 8.18
714 4584 BYTTEBIER ALEXANDRA BEL A1 65 2:34:14 07:21 8.17
715 4124 CAUET JEAN MARIE FRA V1 201 2:34:18 07:21 8.17
716 4203 BOYENVAL VIRGINIE FRA A1 66 2:34:21 07:21 8.16
717 4220 PEREIRA STEPHANIE FRA A1 67 2:34:21 07:21 8.16
718 5161 DARRAS BENOIT FRA SH 241 2:34:23 07:21 8.16
719 5079 CABY SOPHIE FRA A1 68 2:34:24 07:21 8.16
720 5061 CABY RAPHAEL FRA V1 202 2:34:24 07:21 8.16
721 4561 DUCROCQ CAROLE FRA A1 69 2:34:24 07:21 8.16
722 4874 GAGNEUX VINCENT FRA SH 242 2:34:32 07:22 8.15
723 5201 VAN STEE JOS NLD V1 203 2:34:36 07:22 8.15
724 4703 MOUNIE GUILLAUME FRA SH 243 2:34:39 07:22 8.15
725 4280 LESIEUR BRIDEL DELPHINE FRA A1 70 2:34:42 07:22 8.14
726 5005 DEVAUX ERIC FRA V2 75 2:34:43 07:22 8.14
727 4818 VANHOVE RODOLPHE FRA SH 244 2:34:44 07:22 8.14
728 5196 PARENT LAETITIA FRA A1 71 2:35:02 07:23 8.13
729 4736 KOCZAB JEAN CHRISTOPHE FRA V1 204 2:35:07 07:23 8.12
730 4136 LAYATI FADHA-NACÉRA FRA A2 24 2:35:09 07:23 8.12
731 4378 BOULOY MARGAUX FRA SD 101 2:35:10 07:23 8.12
732 4298 BLOQUET LUDOVIC FRA V1 205 2:35:13 07:23 8.12
733 4004 OGES CÉLINE   SD 102 2:35:13 07:23 8.12
734 4550 SAVOURAT JUSTIN FRA SH 245 2:35:16 07:24 8.12
735 5077 KIEKEN AUDREY FRA A1 72 2:35:18 07:24 8.11
736 5170 SOCKEEL CAROLINE FRA SD 103 2:35:21 07:24 8.11
737 5218 PETITPREZ MARION FRA SD 104 2:35:21 07:24 8.11
738 4367 BOCHU CLÉMENTINE FRA SD 105 2:35:21 07:24 8.11
739 5151 LEROY AURELIE FRA SD 106 2:35:23 07:24 8.11
740 5145 FOURNIER FRANCOIS FRA V1 206 2:35:23 07:24 8.11
741 4014 DUPUIS JEAN PAUL FRA V1 207 2:35:23 07:24 8.11
742 4288 POTDEVIN ANAIS FRA SD 107 2:35:26 07:24 8.11
743 5021 LE SUAVÉ PATRICK FRA V2 76 2:35:28 07:24 8.10
744 4709 PONCELET DIMITRI BEL SH 246 2:35:34 07:24 8.10
745 4411 RUFFIER CORALIE FRA A2 25 2:35:37 07:25 8.10
746 4010 DUHAMEL CECILIA   A1 73 2:35:37 07:25 8.10
747 5165 CREPIN AUDREY FRA SD 108 2:35:37 07:25 8.10
748 4477 DUCHENE DANIEL FRA V3 13 2:35:41 07:25 8.09
749 4784 GRAVER RUDY BEL V2 77 2:35:42 07:25 8.09
750 4481 WACLAWSKI EDDIE FRA V2 78 2:35:51 07:25 8.08
751 2425 HAU LAURENT FRA V2 79 2:35:51 07:25 8.08
752 4021 GUERIN DECOOL CECILE FRA A2 26 2:35:51 07:25 8.08
753 4723 BERTHE JÉRÔME FRA SH 247 2:35:59 07:26 8.08
754 4929 DEGAILLE MARILOU BEL JF 1 2:36:05 07:26 8.07
755 4842 PICRON MAITE BEL SD 109 2:36:09 07:26 8.07
756 4972 DUPREZ CHRISTOPHE FRA V1 208 2:36:10 07:26 8.07
757 4965 LOIEZ SOPHIE FRA A1 74 2:36:11 07:26 8.07
758 5123 DUFAY PASCAL BEL V2 80 2:36:16 07:26 8.06
759 4693 ZABARDI PASCALINE FRA A1 75 2:36:18 07:27 8.06
760 4681 HURON PATRICE FRA V2 81 2:36:18 07:27 8.06
761 5073 SCOLAS BÉNÉDICTE BEL SD 110 2:36:20 07:27 8.06
762 4522 BRIZZI ERIC FRA V1 209 2:36:22 07:27 8.06
763 5075 DOYELLE VINCENT FRA V1 210 2:36:22 07:27 8.06
764 4484 MAINGOT AGNES FRA A2 27 2:36:23 07:27 8.06
765 4843 CLAES NATHALIE BEL SD 111 2:36:34 07:27 8.05
766 4625 MOÏSE PATRICK BEL V2 82 2:36:34 07:27 8.05
767 4847 BRUN YOLANDE FRA A1 76 2:36:35 07:27 8.05
768 5091 LOBACH TATYANA FRA A1 77 2:36:43 07:28 8.04
769 4845 FONTAINE CHRISTELLE BEL A2 28 2:36:43 07:28 8.04
770 4771 GOBERT GILLES FRA V2 83 2:36:44 07:28 8.04
771 4789 BOUTLEUX FRANCIS FRA V2 84 2:36:51 07:28 8.03
772 4566 SANS CELINE FRA SD 112 2:37:01 07:29 8.02
773 4144 MARCQ CHRISTOPHER BEL SH 248 2:37:11 07:29 8.02
774 4834 QUAGLIA SANDRINE FRA SD 113 2:37:21 07:30 8.01
775 5028 MEURISSE SERGE FRA V3 14 2:37:32 07:30 8.00
776 4998 MEURISSE CLÉMENT FRA SH 249 2:37:32 07:30 8.00
777 4540 HALIN EMMANUELLE FRA A1 78 2:37:48 07:31 7.98
778 4237 CALLOT LAURA FRA SD 114 2:37:55 07:31 7.98
779 4423 BOCQUET DOMINIQUE FRA A3 1 2:37:57 07:31 7.98
780 5124 DOUILLET RONALD BEL V2 85 2:38:08 07:32 7.97
781 4711 DUCAMP DENIS FRA V1 211 2:38:09 07:32 7.97
782 4699 FOURMY GRÉGORY BEL SH 250 2:38:11 07:32 7.97
783 4207 VIOLETTE SOPHIE FRA A1 79 2:38:14 07:32 7.96
784 5069 SYLVART TAMARA BEL A1 80 2:38:22 07:32 7.96
785 5153 MERRIEN NOEL FRA V3 15 2:38:24 07:33 7.95
786 4267 COUDERT CHRISTIAN FRA V3 16 2:38:24 07:33 7.95
787 4284 GEORGY JEAN FRA V3 17 2:38:24 07:33 7.95
788 4714 GOUBERT JOZEF BEL V2 86 2:38:28 07:33 7.95
789 4760 PERRIN JEAN LOUP FRA V3 18 2:38:32 07:33 7.95
790 4606 VANDERHAEGEN GAUTHIER FRA SH 251 2:38:35 07:33 7.95
791 4609 GROSBOIS MATHIEU FRA SH 252 2:38:35 07:33 7.95
792 2044 BAQUE PIERRE FRA SH 253 2:38:37 07:33 7.94
793 4169 VANBAELINGHEM STEPHANE FRA V2 87 2:38:39 07:33 7.94
794 4537 LLINARES MANON FRA SD 115 2:38:40 07:33 7.94
795 4696 MANS WILHELM BEL V3 19 2:38:41 07:33 7.94
796 4111 ROUSÉ LAETITIA FRA A1 81 2:38:42 07:33 7.94
797 4264 JAROSZ HELENE FRA A1 82 2:38:42 07:33 7.94
798 5033 DECLERCQ ANNE-SOPHIE BEL A1 83 2:38:47 07:34 7.94
799 4447 MOREAUX MARTINE BEL A1 84 2:39:11 07:35 7.92
800 4213 TELLIER LAURENT FRA V2 88 2:39:16 07:35 7.91
801 4317 DEVEY NATHALIE FRA A1 85 2:39:17 07:35 7.91
802 5086 VANDEVOORDE SEBASTIEN FRA V1 212 2:39:23 07:35 7.91
803 4448 PIETQUIN JEAN-PIERRE BEL V3 20 2:39:25 07:35 7.90
804 4864 BOUTLEUX GUY FRA V3 21 2:39:26 07:36 7.90
805 4733 MOREL MARTINE FRA A3 2 2:39:29 07:36 7.90
806 5038 HEUREUX GÉRALDINE FRA SD 116 2:39:30 07:36 7.90
807 5142 FACHE LAURENCE FRA A1 86 2:39:32 07:36 7.90
808 4574 WASTYN CELINE FRA A1 87 2:39:37 07:36 7.89
809 5000 BOCQUET BRUNO FRA V3 22 2:39:38 07:36 7.89
810 5156 BEAUREPAIRE ELISE FRA SD 117 2:39:39 07:36 7.89
811 4949 BAGES EMELINE FRA SD 118 2:39:39 07:36 7.89
812 4543 BONVALET GERALDINE FRA A1 88 2:39:44 07:36 7.89
813 4148 DUPONT CAROLE FRA A1 89 2:39:44 07:36 7.89
814 4529 LIVERMORE PIERRE BEL SH 254 2:39:47 07:37 7.89
815 4430 DUDAL STEFANIE BEL A1 90 2:39:49 07:37 7.88
816 4431 DESMEDT KATRIEN BEL SD 119 2:39:49 07:37 7.88
817 4050 BECQUET LAURENCE FRA A1 91 2:39:50 07:37 7.88
818 4715 DE WITTE LIEVE BEL A2 29 2:39:50 07:37 7.88
819 5024 ROTH MATHIEU BEL SH 255 2:39:52 07:37 7.88
820 4163 ROSA NADINE FRA A2 30 2:39:56 07:37 7.88
821 5198 SIMOES CATHY FRA A1 92 2:39:58 07:37 7.88
822 4700 POUYAU - DELABY VÉRONIQUE FRA A1 93 2:40:02 07:37 7.87
823 4672 DENIS CÉDRIC FRA SH 256 2:40:03 07:37 7.87
824 4440 PUTMAN AURELIE FRA SD 120 2:40:12 07:38 7.87
825 4291 DELESALLE CEDRIC FRA SH 257 2:40:26 07:38 7.85
826 4294 DEFFRENNES AMANDINE FRA SD 121 2:40:27 07:38 7.85
827 4656 DIEU VIRGINIE FRA A1 94 2:40:35 07:39 7.85
828 4761 CANU OLIVIER FRA V1 213 2:40:36 07:39 7.85
829 5099 BRUNCLAIR MARIE BEL SD 122 2:40:48 07:39 7.84
830 4824 COTTIGNIES XAVIER FRA SH 258 2:40:48 07:39 7.84
831 4782 LECLERC CHRISTIANE BEL A3 3 2:40:51 07:40 7.83
832 4717 DHALLEINE SOPHIE FRA SD 123 2:40:54 07:40 7.83
833 5037 BAIL CATHERINE FRA SD 124 2:40:54 07:40 7.83
834 4372 DE JONG TOM NLD V2 89 2:40:57 07:40 7.83
835 4621 BAWIN BRIGITTE BEL A3 4 2:40:58 07:40 7.83
836 4937 LAVINA CORINNE FRA A2 31 2:41:05 07:40 7.82
837 5032 MENART CEDRIC BEL SH 259 2:41:06 07:40 7.82
838 4297 STAERCK RICHARD FRA V1 214 2:41:08 07:40 7.82
839 4138 BORGHESI CLAUDINE FRA A3 5 2:41:10 07:40 7.82
840 5192 SAMANTHA REMY FRA SD 125 2:41:23 07:41 7.81
841 4552 AUDREZET LAETITIA FRA SD 126 2:41:36 07:42 7.80
842 4222 ANGLADE ELVIRE FRA SD 127 2:41:41 07:42 7.79
843 4426 BOULENT SYLVIE FRA A2 32 2:41:44 07:42 7.79
844 4139 DUPIRE ANNE SOPHIE FRA A2 33 2:41:52 07:42 7.78
845 4808 BLOUIN STEPHANE FRA V1 215 2:41:59 07:43 7.78
846 4759 BOULANGER AMANDINE FRA SD 128 2:42:00 07:43 7.78
847 5230 MACHA NICOLAS FRA V1 216 2:42:05 07:43 7.77
848 4861 DEBRULLE BENEDICTE BEL A1 95 2:42:19 07:44 7.76
849 4204 DEVRIÈSE CÉLINE FRA A1 96 2:42:19 07:44 7.76
850 4327 CHAMBOST JEROME FRA V1 217 2:42:20 07:44 7.76
851 4869 THERIN VIRGINIE BEL SD 129 2:42:22 07:44 7.76
852 4955 LEQUENNE LAETITIA BEL A1 97 2:42:22 07:44 7.76
853 4928 COLLETTE AGATHE FRA A1 98 2:42:27 07:44 7.76
854 4596 BONVARLET PASCALE FRA V2 90 2:42:42 07:45 7.74
855 4598 WILLEM XAVIER FRA A2 34 2:42:42 07:45 7.74
856 4600 PAIROUX CHANTAL BEL A3 6 2:42:48 07:45 7.74
857 5066 LEDENT CHRISTINE FRA A2 35 2:42:49 07:45 7.74
858 4800 MAGNIEZ AXEL FRA SH 260 2:42:54 07:45 7.73
859 5097 PETIT STEPHANIE FRA A1 99 2:42:58 07:46 7.73
860 4905 BUTRUILLE CHLOE FRA SD 130 2:43:02 07:46 7.73
861 5078 NIJS DOMINIQUE BEL A2 36 2:43:05 07:46 7.73
862 4768 PICATTO DAVID FRA V1 218 2:43:06 07:46 7.73
863 5203 RAMAULT KRIS BEL V1 219 2:43:07 07:46 7.72
864 4698 DALLE BERTRAND FRA V1 220 2:43:20 07:47 7.71
865 4379 OLLIEUZ MARLEEN BEL SD 131 2:43:32 07:47 7.70
866 4140 DELMOTTE CHRISTINE FRA A2 37 2:43:33 07:47 7.70
867 4889 MONTADOR JACQUES FRA V3 23 2:43:46 07:48 7.69
868 5179 LALLEMAND PASCALE BEL A2 38 2:43:49 07:48 7.69
869 4389 LORRIAUX VALERIE FRA A2 39 2:43:52 07:48 7.69
870 4669 FRANCE MANUELLA FRA A2 40 2:43:54 07:48 7.69
871 4670 COPPIN ALBANE FRA A2 41 2:43:54 07:48 7.69
872 4432 DESMEDT GEERT BEL V1 221 2:43:57 07:48 7.69
873 4816 DEBOUVER THOMAS FRA SH 261 2:44:02 07:49 7.68
874 4433 VLAMINCK NATHALIE BEL A1 100 2:44:20 07:50 7.67
875 4765 LECOURT CEDRIC FRA V1 222 2:44:24 07:50 7.66
876 4355 CHANTREAU THIERRY FRA V2 91 2:44:28 07:50 7.66
877 5011 WABLE HORTENSE FRA SD 132 2:44:30 07:50 7.66
878 5006 TERNYNCK AGATHE FRA SD 133 2:44:30 07:50 7.66
879 5227 LEROY BÉATRICE FRA A2 42 2:44:31 07:50 7.66
880 4982 DEREUDER LAURENCE FRA A2 43 2:44:39 07:50 7.65
881 2563 RABIER ANNIE FRA A2 44 2:44:45 07:51 7.65
882 4592 CASTEL JEAN FRA SH 262 2:44:46 07:51 7.65
883 4909 BERTAUX JEAN-LUC FRA V2 92 2:44:53 07:51 7.64
884 4610 WABLE CÉLESTINE FRA SD 134 2:45:00 07:51 7.64
885 4617 WABLE LAURENT FRA V2 93 2:45:02 07:52 7.63
886 4657 MOREAUX SANDRINE BEL SD 135 2:45:03 07:52 7.63
887 5204 VERSTRAETE CAROLINE BEL A1 101 2:45:10 07:52 7.63
888 4967 BOURLART BERTRAND FRA V1 223 2:45:12 07:52 7.63
889 4741 VANDEWYNCKEL CAROLINE FRA A1 102 2:45:16 07:52 7.62
890 4439 VALLEE KARINE FRA A1 103 2:45:17 07:52 7.62
891 4166 BOURRE VERONIQUE FRA A1 104 2:45:20 07:52 7.62
892 4866 MOULIN PASCALE BEL A1 105 2:45:21 07:52 7.62
893 4628 LÉONARD EDMÉE BEL A3 7 2:45:24 07:53 7.62
894 4528 VANDERSMISSEN JONATHAN BEL SH 263 2:45:31 07:53 7.61
895 4498 LEOSKOOL AMELIE BEL SD 136 2:45:31 07:53 7.61
896 4979 OGNIBENE CHARLOTTE BEL SD 137 2:45:33 07:53 7.61
897 4541 FOURNIER AMÉLIE FRA SD 138 2:45:33 07:53 7.61
898 4539 LONGAVESNE GWENDOLINE FRA SD 139 2:45:34 07:53 7.61
899 5140 PAUL MURIELLE FRA SD 140 2:45:39 07:53 7.61
900 5085 SCHRAMME VIRGINIE FRA SD 141 2:45:40 07:53 7.61
901 4209 BOUCHET MAURICE FRA V2 94 2:45:41 07:53 7.60
902 4165 AMARA MERIAM FRA SD 142 2:45:41 07:53 7.60
903 5059 VANDENBULCKE ISABELLE BEL SD 143 2:45:41 07:53 7.60
904 5171 GRARDEL BRUNO FRA V2 95 2:45:42 07:53 7.60
905 4822 MALFOY CLEMENT FRA SH 264 2:45:42 07:53 7.60
906 4168 DERAM CHRISTOPHE FRA V2 96 2:45:43 07:53 7.60
907 4865 BUTRUILLE JULIE FRA SD 144 2:45:53 07:54 7.60
908 4549 BUTRUILLE OLIVIER FRA V2 97 2:45:53 07:54 7.60
909 4277 MICHAUX STANISLAS FRA V2 98 2:45:55 07:54 7.59
910 4231 DUCROTOY GERARD FRA V2 99 2:45:55 07:54 7.59
911 4409 PILLIEZ AMELIE FRA A1 106 2:45:56 07:54 7.59
912 4214 LIEBAERT DENIS FRA V3 24 2:45:56 07:54 7.59
913 4405 VERIER SOPHIE FRA A1 107 2:45:57 07:54 7.59
914 4404 DEFOORT PASCAL FRA V2 100 2:45:57 07:54 7.59
915 4798 GOURDIN LUCAS FRA JH 1 2:46:01 07:54 7.59
916 4325 PLANKEELE DAVIDD FRA SH 265 2:46:04 07:54 7.59
917 5237 MORSOMME HÉLÈNE BEL SD 145 2:46:07 07:55 7.59
918 4366 VAN DE VOORDE KATRIEN BEL A1 108 2:46:09 07:55 7.58
919 4244 LEMÉE ÉDOUARD FRA SH 266 2:46:10 07:55 7.58
920 5026 THIENPONDT MARIE BEL SD 146 2:46:16 07:55 7.58
921 5111 CAILLERET CHRISTOPHE FRA V2 101 2:46:19 07:55 7.58
922 4802 DURIEUX ANDRE FRA V2 102 2:46:20 07:55 7.58
923 4906 BOUCAU JENNIFER BEL SD 147 2:46:35 07:56 7.56
924 4892 JOVENEAU BRUNO BEL V2 103 2:46:39 07:56 7.56
925 4885 DESTREZ CHRISTOPHE FRA V2 104 2:46:53 07:57 7.55
926 4823 MALFOY STÉPHANE FRA V1 224 2:46:54 07:57 7.55
927 4971 GILLOT CHRISTEL BEL A1 109 2:47:03 07:57 7.54
928 4976 CAMPANELLA FRANCESCA FRA A1 110 2:47:10 07:58 7.54
929 5182 DELBARRE SABRINA FRA SD 148 2:47:19 07:58 7.53
930 5181 PAUCHET VANESSA FRA SD 149 2:47:20 07:58 7.53
931 4601 DEBAUCHERON THIERRY BEL V2 105 2:47:21 07:58 7.53
932 5232 VAMPOUILLE BENOIT FRA V1 225 2:47:23 07:58 7.53
933 5231 BOULY MICHAEL FRA V1 226 2:47:25 07:58 7.53
934 5096 RUBBRECHT DOMINIQUE FRA A3 8 2:47:35 07:59 7.52
935 5186 RUBBRECHT CHRISTELLE FRA A1 111 2:47:35 07:59 7.52
936 5050 DEROISY RITA BEL A2 45 2:47:36 07:59 7.52
937 5049 RIZZO VINCENZA ITA A2 46 2:47:36 07:59 7.52
938 4202 DIEU CHRISTINE FRA A1 112 2:47:56 08:00 7.50
939 4914 BRIOUL STEPHANIE FRA SD 150 2:48:08 08:00 7.49
940 4913 BRICHE INGRID FRA SD 151 2:48:08 08:00 7.49
941 4637 CARDON ELODIE FRA SD 152 2:48:08 08:00 7.49
942 5127 NOEL DOMINIQUE BEL SD 153 2:48:13 08:01 7.49
943 4862 NOEL HELENE BEL SD 154 2:48:13 08:01 7.49
944 4873 LESOIL HARMONY FRA SD 155 2:48:16 08:01 7.49
945 5211 DEROME JADE FRA SD 156 2:48:16 08:01 7.49
946 4880 DELBAUVE VERONIQUE FRA A1 113 2:48:18 08:01 7.49
947 4182 HEDGES PHILIP BEL V3 25 2:48:49 08:02 7.46
948 4373 RIBAULT FREDERIQUE FRA A1 114 2:49:02 08:03 7.45
949 4487 DELRUE BENOIT BEL V2 106 2:49:24 08:04 7.44
950 4119 KOCHER ELODIE FRA SD 157 2:49:25 08:04 7.44
951 5015 DUSAUTOIR FREDERIQUE FRA A2 47 2:49:26 08:04 7.44
952 4563 WACLAWSKI SYLVIE FRA A2 48 2:49:28 08:04 7.44
953 4465 MADRZYK FRANCIS FRA V1 227 2:49:28 08:04 7.44
954 4985 THERY LUDOVIC FRA V1 228 2:49:30 08:04 7.43
955 4946 WASTERZAK FREDERIC FRA V1 229 2:49:35 08:05 7.43
956 4286 DEBRIE JEAN-LUC FRA V3 26 2:49:36 08:05 7.43
957 4251 DEBRIE MARIE FRA SD 158 2:49:36 08:05 7.43
958 4187 LEMAITRE SYLVAIN FRA SH 267 2:49:36 08:05 7.43
959 4858 PUFFET CHRISTELLE BEL A1 115 2:49:41 08:05 7.43
960 4875 DE CONINCK HELENE FRA A1 116 2:49:51 08:05 7.42
961 4408 DEVEYER SYLVIE FRA A2 49 2:49:53 08:05 7.42
962 4403 WALRYCK SANDRINE FRA A1 117 2:49:53 08:05 7.42
963 4988 KEUTGENS CHRISTIANE BEL A1 118 2:50:02 08:06 7.41
964 4778 MAGUIN PATRICIA BEL A2 50 2:50:07 08:06 7.41
965 4779 JURIN LILI BEL SD 159 2:50:07 08:06 7.41
966 4781 DEDEE SANDRA BEL SD 160 2:50:07 08:06 7.41
967 5193 LECLERCQ JEAN-CLAUDE FRA V1 230 2:50:15 08:06 7.40
968 4162 WERQUIN THOMAS FRA SH 268 2:50:15 08:06 7.40
969 4713 LIEBAUT KATRIEN BEL A2 51 2:50:19 08:07 7.40
970 4769 DISSAUX EMMANUEL FRA V1 231 2:50:20 08:07 7.40
971 4931 FLOERS DUROISIN SANDRA FRA A1 119 2:50:25 08:07 7.39
972 5016 DUROISIN GILLES BEL V1 232 2:50:31 08:07 7.39
973 5035 DEPLANQUE CHANTAL BEL A3 9 2:50:45 08:08 7.38
974 5034 BARGIBANT PATRICK BEL V1 233 2:50:54 08:08 7.37
975 4910 DEVIGNE MURIELLE FRA A2 52 2:50:56 08:08 7.37
976 4358 PALOMBA STÉPHANIE FRA A1 120 2:51:08 08:09 7.36
977 4359 COHIN ANGELINE FRA A2 53 2:51:08 08:09 7.36
978 4961 JAUMOTTE CAROLINE BEL A2 54 2:51:14 08:09 7.36
979 4772 ANSEL ALEXIS FRA SH 269 2:51:19 08:09 7.35
980 5178 JOUVENAUX XAVELINE FRA A1 121 2:51:31 08:10 7.35
981 5177 JOUVENAUX BENOIT FRA V1 234 2:51:31 08:10 7.35
982 4300 MALATERRE GILLES FRA V3 27 2:51:34 08:10 7.34
983 4870 GAILLEZ VIRGINIE BEL A1 122 2:51:36 08:10 7.34
984 5107 HONVAULT ALAIN FRA V2 107 2:51:48 08:11 7.33
985 4003 SINNAEVE ROMUALD   SH 270 2:51:50 08:11 7.33
986 4248 BORNE STÉPHANE FRA SH 271 2:51:53 08:11 7.33
987 4247 LACROIX YOHANN FRA V1 235 2:51:53 08:11 7.33
988 4489 DUBOIS VINCENT BEL V2 108 2:52:03 08:12 7.32
989 4211 LAURENS LARA FRA A1 123 2:52:10 08:12 7.32
990 4141 DE SAINT MAUR YVES FRA V1 236 2:52:22 08:12 7.31
991 4137 DE SAINT MAUR ANNE FRA A1 124 2:52:22 08:12 7.31
992 4559 PONTOIS JÉRÔME FRA V1 237 2:52:26 08:13 7.31
993 4690 DELABRE CAMILLE FRA SD 161 2:52:49 08:14 7.29
994 4313 HURET STEPHANIE FRA A1 125 2:53:12 08:15 7.27
995 4312 HURET MICHAEL FRA V1 238 2:53:14 08:15 7.27
996 4676 RUCKEBUSCH SANDRA FRA A1 126 2:53:26 08:16 7.27
997 4429 CHOLET SEVERINE FRA A1 127 2:53:34 08:16 7.26
998 4512 HENNAUT FRÉDÉRIQUE BEL A1 128 2:53:43 08:16 7.25
999 5101 LEFÈVRE CÉCILE BEL A1 129 2:53:43 08:16 7.25
1000 5094 BROOTCORNE ISABELLE BEL A2 55 2:53:43 08:16 7.25
1001 4558 DECAIGNY FRANÇOISE BEL A1 130 2:53:43 08:16 7.25
1002 4560 STÉPHANIE LESOILE BEL SD 162 2:53:44 08:16 7.25
1003 5092 HONORÉ MÉLANIE BEL SD 163 2:53:44 08:16 7.25
1004 5148 ANDRE NATHALIE BEL A2 56 2:53:44 08:16 7.25
1005 5093 GALLEZ LAURENCE BEL A1 131 2:53:45 08:16 7.25
1006 4720 DE SMEDT MARINA BEL A2 57 2:53:53 08:17 7.25
1007 4626 DEKEYZER CATHERIE BEL A2 58 2:53:54 08:17 7.25
1008 4919 MAYEUR DOROTHÉE FRA A1 132 2:53:58 08:17 7.24
1009 4608 LEPECQUET MARTIN FRA SH 272 2:54:08 08:18 7.24
1010 4753 BOURCE MÉLANIE BEL SD 164 2:54:09 08:18 7.24
1011 4752 DEVILLERS SOPHIE BEL SD 165 2:54:10 08:18 7.23
1012 4453 BLEUNVEN CAMILLE FRA SD 166 2:54:15 08:18 7.23
1013 4149 DUPONT STÉPHANIE FRA A1 133 2:54:33 08:19 7.22
1014 4253 JOUAN PAUL FRA SH 273 2:55:09 08:20 7.19
1015 4199 NEZ MARIE-AMANDINE FRA SD 167 2:55:10 08:20 7.19
1016 4568 MAILLOT CATHERINE FRA SD 168 2:55:30 08:21 7.18
1017 5106 CHOCHOY SYLVIE FRA A2 59 2:55:32 08:22 7.18
1018 4853 STAS VERONIQUE BEL A1 134 2:55:54 08:23 7.16
1019 5068 BOULANT ELODIE FRA A1 135 2:55:54 08:23 7.16
1020 4852 BERTRAND MAY BEL SD 169 2:55:54 08:23 7.16
1021 5060 DUVAL JEAN LOUIS FRA V2 109 2:56:20 08:24 7.15
1022 4304 THIBAULT ANGÉLIQUE FRA A1 136 2:56:21 08:24 7.14
1023 4908 GOEMAERE ANNE-MARIE BEL A2 60 2:56:21 08:24 7.14
1024 4462 BOUVET MARTINE BEL A1 137 2:56:34 08:24 7.14
1025 4896 PETIT FRÉDÉRIC FRA V2 110 2:56:40 08:25 7.13
1026 4992 BOUHON AMANDINE BEL SD 170 2:56:42 08:25 7.13
1027 4893 HOVINE MARIE-CÉCILE BEL A1 138 2:56:44 08:25 7.13
1028 4826 LA MARCHE DOMINIQUE BEL V1 239 2:57:02 08:26 7.12
1029 5159 SANGNIER FLORENCE FRA A1 139 2:57:26 08:27 7.10
1030 5154 CLAISSE KARINE FRA A1 140 2:57:26 08:27 7.10
1031 4686 MATRAT CAROLINE FRA A1 141 2:57:35 08:27 7.10
1032 4685 MARTI EMMANUELLE FRA A1 142 2:57:35 08:27 7.10
1033 5100 HONDERMARCK CHRISTINE FRA A2 61 2:57:57 08:28 7.08
1034 4175 FRUCHART ISABELLE FRA A1 143 2:58:22 08:30 7.06
1035 4867 DUSSART VÉRONIQUE FRA A1 144 2:58:22 08:30 7.06
1036 4661 WARGNIES CEDRIC BEL SH 274 2:58:31 08:30 7.06
1037 4659 MBOUWEN CLEMENT CMR SH 275 2:58:31 08:30 7.06
1038 5088 GRÉAU DOMINIQUE FRA A1 145 2:58:37 08:30 7.05
1039 4638 REMMERIE DELPHINE FRA A1 146 2:59:30 08:33 7.02
1040 4640 DESCAMPS CAROLINE FRA A1 147 2:59:31 08:33 7.02
1041 5054 TALLEUX MARIE FRA SD 171 3:00:38 08:36 6.98
1042 4235 GRADZIK ESTELLE FRA A1 148 3:00:57 08:37 6.96
1043 4133 CREUSOT CÉCILE FRA A1 149 3:00:57 08:37 6.96
1044 5095 DE NEEF FLORENCE BEL SD 172 3:01:05 08:37 6.96
1045 5125 GRULOIS ERIK BEL V1 240 3:01:20 08:38 6.95
1046 4225 GRULOIS JOSEPH BEL V3 28 3:01:20 08:38 6.95
1047 4005 SAUVAGE EDITH   A2 62 3:01:51 08:40 6.93
1048 4838 HERMAN NICOLAS FRA V1 241 3:02:15 08:41 6.91
1049 4837 ROUSSEL MAGALIE FRA A1 150 3:02:15 08:41 6.91
1050 4354 VANTORRE PHILIPPE FRA V2 111 3:02:21 08:41 6.91
1051 4801 TRANSON DELPHINE FRA A1 151 3:02:25 08:41 6.91
1052 5130 MALFRERE FABRICE BEL A1 152 3:02:57 08:43 6.89
1053 4218 HENNION NATHALIE FRA A1 153 3:04:20 08:47 6.84
1054 4879 BONFIGLIO CALOGERO ITA V3 29 3:04:27 08:47 6.83
1055 5147 PLASSON CAROLINE FRA SD 173 3:05:34 08:50 6.79
1056 4639 NOEL CHRISTELLE BEL SD 174 3:06:11 08:52 6.77
1057 5212 DEROME JULIE FRA SD 175 3:06:41 08:53 6.75
1058 5226 LOHIER CLAUDETTE FRA A2 63 3:07:39 08:56 6.71
1059 5225 LAVOCAT ANNIE FRA A3 10 3:07:40 08:56 6.71
1060 4554 YPERSIEL JESSICA BEL SD 176 3:07:52 08:57 6.71
1061 4881 SERLIPPENS FRANCIS FRA V2 112 3:07:52 08:57 6.71
1062 4371 PATTYN BÉATRICE FRA A1 154 3:08:05 08:57 6.70
1063 4530 STASSE ELÉONORE FRA SD 177 3:09:05 09:00 6.66
1064 4542 STASSE JEAN-PIERRE BEL V2 113 3:09:06 09:00 6.66
1065 4544 VOS CLAIRE BEL A2 64 3:09:06 09:00 6.66
1066 4401 VANDEVILLE CLARA FRA SD 178 3:09:14 09:01 6.66
1067 4641 CHOISEZ NATHALIE FRA A1 155 3:10:17 09:04 6.62
1068 4701 POUTEAU STOPIN ANNE MARIE FRA A2 65 3:10:29 09:04 6.61
1069 4697 PANTIN ALINE FRA SD 179 3:11:13 09:06 6.59
1070 4891 DE BOURNONVILLE MASY MARIE JEANNE BEL A2 66 3:13:44 09:14 6.50
1071 4884 DECOSTER FRÉDÉRIC BEL V1 242 3:13:54 09:14 6.50
1072 5003 ROLLAND PHILIPPE BEL V1 243 3:13:54 09:14 6.50
1073 5239 BAELUS SARAH BEL SD 180 3:14:17 09:15 6.49
1074 5238 MAHY LESLIE BEL SD 181 3:14:17 09:15 6.49
1075 4846 CRANINX VIRGINIE BEL SD 182 3:14:34 09:16 6.48
1076 4848 PIRONNET SANDRINE BEL A1 156 3:14:35 09:16 6.48
1077 5044 TARIN LAETITIA BEL SD 183 3:16:51 09:22 6.40
1078 4589 SKIROLE MARIE-CLAIRE BEL A3 11 3:19:27 09:30 6.32
1079 4273 ROGOT MARGAUX FRA SD 184 3:21:26 09:36 6.26
1080 4586 BONVARLET CLARA FRA SH 276 3:22:40 09:39 6.22
1081 4607 VANDERHAEGEN HERVÉ FRA V2 114 3:22:40 09:39 6.22
1082 4434 PRUDHOMME NADEGE FRA SD 185 3:29:25 09:58 6.02
1083 4406 MEKERKE BLANDINE FRA A2 67 3:35:50 10:17 5.84
1084 4407 MEKERKE FRANÇOIS FRA V2 115 3:35:50 10:17 5.84
1085 4425 DELFORGE CHRISTOPHE FRA V1 244 3:54:25 11:10 5.38